W4HSV Weather Reports


Display with metric or nautical units.
time (UTC)temp
F
wind
direction
speed
MPH
gust
MPH
rain 1hr
in
rain 24hr
in
rain mn
in
humidity
%
barometer
mb
20260906194826 98 344 6.0 12.0 0.00 0.04 0.00 54 1009.9
20260906194756 98 336 6.0 11.0 0.00 0.04 0.00 52 1009.9
20260906194530 98 28 6.0 11.0 0.00 0.04 0.00 51 1009.9
20260906194421 98 32 6.0 12.0 0.00 0.04 0.00 52 1010.0
20260906194329 98 47 6.0 12.0 0.00 0.04 0.00 53 1010.0
20260906194256 98 22 5.0 12.0 0.00 0.04 0.00 52 1010.0
20260906194122 98 40 3.0 12.0 0.00 0.04 0.00 52 1010.0
20260906194028 98 350 2.0 12.0 0.00 0.04 0.00 53 1010.0
20260906193936 98 292 4.0 12.0 0.00 0.04 0.00 52 1010.0
20260906193828 98 11 6.0 12.0 0.00 0.04 0.00 54 1010.2
20260906193734 98 36 6.0 12.0 0.00 0.04 0.00 54 1010.1
20260906193621 98 28 6.0 12.0 0.00 0.04 0.00 54 1010.1
20260906193529 98 9 7.0 11.0 0.00 0.04 0.00 54 1010.1
20260906193436 98 360 6.0 12.0 0.00 0.04 0.00 55 1010.2
20260906193323 97 355 5.0 14.0 0.00 0.04 0.00 53 1010.1
20260906193258 97 5 5.0 14.0 0.00 0.04 0.00 53 1010.1
20260906193032 97 34 7.0 16.0 0.00 0.04 0.00 55 1010.2
20260906192940 97 17 8.0 16.0 0.00 0.04 0.00 54 1010.3
20260906192827 97 360 7.0 16.0 0.00 0.04 0.00 53 1010.2
20260906192718 97 32 8.0 16.0 0.00 0.04 0.00 54 1010.3
20260906192625 97 10 9.0 16.0 0.00 0.04 0.00 56 1010.3
20260906192532 97 11 10.0 16.0 0.00 0.04 0.00 52 1010.3
20260906192418 98 360 11.0 16.0 0.00 0.04 0.00 52 1010.3
20260906192324 98 55 9.0 16.0 0.00 0.04 0.00 51 1010.3
20260906192232 98 16 8.0 16.0 0.00 0.04 0.00 51 1010.3
20260906192123 98 51 8.0 12.0 0.00 0.04 0.00 53 1010.4
20260906192050 98 18 9.0 12.0 0.00 0.04 0.00 53 1010.5
20260906191936 98 17 8.0 12.0 0.00 0.04 0.00 53 1010.4
20260906191844 98 5 5.0 12.0 0.00 0.04 0.00 53 1010.4
20260906191815 98 34 4.0 9.0 0.00 0.04 0.00 53 1010.4
20260906191548 98 345 4.0 10.0 0.00 0.04 0.00 54 1010.4
20260906191438 98 5 5.0 10.0 0.00 0.04 0.00 54 1010.4
20260906191325 98 345 5.0 10.0 0.00 0.04 0.00 54 1010.5
20260906191232 98 355 5.0 10.0 0.00 0.04 0.00 54 1010.5
20260906191140 98 355 6.0 11.0 0.00 0.04 0.00 54 1010.6
20260906191025 98 5 5.0 11.0 0.00 0.04 0.00 52 1010.5
20260906190932 98 26 5.0 11.0 0.00 0.04 0.00 52 1010.5
20260906190824 98 44 6.0 11.0 0.00 0.04 0.00 52 1010.6
20260906190731 98 51 6.0 12.0 0.00 0.04 0.00 53 1010.6
20260906190618 98 35 6.0 12.0 0.00 0.04 0.00 53 1010.7
20260906190524 98 32 5.0 12.0 0.00 0.04 0.00 54 1010.6
20260906190430 98 99 6.0 12.0 0.00 0.04 0.00 54 1010.7
20260906190322 98 20 8.0 12.0 0.00 0.04 0.00 54 1010.6
20260906190254 98 343 8.0 12.0 0.00 0.04 0.00 55 1010.6
20260906190046 97 5 8.0 12.0 0.00 0.04 0.00 55 1010.7
20260906185933 97 355 7.0 12.0 0.00 0.04 0.00 55 1010.7
20260906185821 97 325 5.0 14.0 0.00 0.04 0.00 55 1010.7
20260906185732 97 360 6.0 14.0 0.00 0.04 0.00 54 1010.7
20260906185619 97 42 4.0 14.0 0.00 0.04 0.00 55 1010.7
20260906185526 97 5 3.0 14.0 0.00 0.04 0.00 55 1010.8
20260906185454 97 22 4.0 14.0 0.00 0.04 0.00 54 1010.7
20260906185319 97 51 6.0 14.0 0.00 0.04 0.00 54 1010.8
20260906185227 97 28 8.0 14.0 0.00 0.04 0.00 54 1010.7
20260906185118 97 15 10.0 14.0 0.00 0.04 0.00 55 1010.8
20260906185025 97 22 10.0 14.0 0.00 0.04 0.00 54 1010.8
20260906184933 97 40 9.0 13.0 0.00 0.04 0.00 53 1010.8
20260906184820 97 51 7.0 13.0 0.00 0.04 0.00 54 1010.8
20260906184752 97 85 6.0 13.0 0.00 0.04 0.00 56 1010.9
20260906184526 97 351 2.0 13.0 0.00 0.04 0.00 55 1010.8
20260906184432 97 72 2.0 13.0 0.00 0.04 0.00 53 1010.8
20260906184319 97 53 5.0 13.0 0.00 0.04 0.00 55 1010.9
20260906184226 97 60 5.0 13.0 0.00 0.04 0.00 54 1011.0
20260906184153 97 77 5.0 13.0 0.00 0.04 0.00 54 1010.9
20260906184021 97 65 8.0 13.0 0.00 0.04 0.00 54 1010.9
20260906183949 97 51 8.0 13.0 0.00 0.04 0.00 54 1011.0
20260906183834 97 69 8.0 13.0 0.00 0.04 0.00 54 1011.0
20260906183722 97 65 6.0 10.0 0.00 0.04 0.00 57 1010.9
20260906183629 97 23 4.0 9.0 0.00 0.04 0.00 56 1010.9
20260906183537 97 67 3.0 9.0 0.00 0.04 0.00 54 1010.9
20260906183426 97 51 4.0 10.0 0.00 0.04 0.00 54 1011.0
20260906183333 97 355 5.0 10.0 0.00 0.04 0.00 54 1010.9
20260906183304 97 355 4.0 10.0 0.00 0.04 0.00 54 1010.9
20260906183037 97 31 3.0 10.0 0.00 0.04 0.00 54 1011.0
20260906182928 97 17 4.0 10.0 0.00 0.04 0.00 56 1011.0
20260906182834 97 131 5.0 10.0 0.00 0.04 0.00 55 1011.0
20260906182739 98 119 5.0 10.0 0.00 0.04 0.00 54 1011.1
20260906182625 98 121 6.0 10.0 0.00 0.04 0.00 53 1011.1
20260906182532 98 40 7.0 10.0 0.00 0.04 0.00 53 1011.1
20260906182440 98 45 6.0 11.0 0.00 0.04 0.00 53 1011.2
20260906182326 98 49 5.0 11.0 0.00 0.04 0.00 53 1011.3
20260906182238 98 9 4.0 11.0 0.00 0.04 0.00 53 1011.1
20260906182124 98 28 4.0 11.0 0.00 0.04 0.00 55 1011.2
20260906182030 98 13 3.0 11.0 0.00 0.04 0.00 54 1011.2
20260906181936 98 325 4.0 11.0 0.00 0.04 0.00 52 1011.2
20260906181822 98 26 5.0 11.0 0.00 0.04 0.00 54 1011.2
20260906181757 98 23 5.0 11.0 0.00 0.04 0.00 54 1011.2
20260906181530 98 340 3.0 7.0 0.00 0.04 0.00 53 1011.2
20260906181437 98 306 3.0 7.0 0.00 0.04 0.00 52 1011.3
20260906181344 98 83 3.0 10.0 0.00 0.04 0.00 52 1011.3
20260906181229 98 24 3.0 10.0 0.00 0.04 0.00 54 1011.3
20260906181122 98 309 3.0 10.0 0.00 0.04 0.00 54 1011.3
20260906181030 98 355 2.0 10.0 0.00 0.04 0.00 52 1011.2
20260906180956 98 287 2.0 10.0 0.00 0.04 0.00 53 1011.3
20260906180842 98 123 2.0 10.0 0.00 0.04 0.00 51 1011.4
20260906180729 98 184 3.0 10.0 0.00 0.04 0.00 52 1011.3
20260906180635 98 321 6.0 10.0 0.00 0.04 0.00 53 1011.4
20260906180526 98 360 7.0 10.0 0.00 0.04 0.00 53 1011.4
20260906180455 98 45 6.0 10.0 0.00 0.04 0.00 53 1011.5
20260906180341 98 17 6.0 10.0 0.00 0.04 0.00 54 1011.4
20260906180312 98 40 6.0 10.0 0.00 0.04 0.00 54 1011.4
20260906180026 97 345 5.0 10.0 0.00 0.04 0.00 57 1011.6
20260906175936 97 355 6.0 10.0 0.00 0.04 0.00 55 1011.6
20260906175823 97 17 7.0 10.0 0.00 0.04 0.00 55 1011.6
20260906175750 97 5 7.0 10.0 0.00 0.04 0.00 55 1011.5
20260906175655 97 41 6.0 10.0 0.00 0.04 0.00 56 1011.7
20260906175541 97 5 6.0 9.0 0.00 0.04 0.00 55 1011.6
20260906175446 97 355 6.0 9.0 0.00 0.04 0.00 55 1011.6
20260906175333 97 355 5.0 9.0 0.00 0.04 0.00 55 1011.7
20260906175223 97 298 3.0 9.0 0.00 0.04 0.00 56 1011.7
20260906175129 97 360 4.0 8.0 0.00 0.04 0.00 55 1011.7
20260906175036 97 350 4.0 12.0 0.00 0.04 0.00 55 1011.7
20260906174923 97 327 4.0 12.0 0.00 0.04 0.00 55 1011.8
20260906174831 97 9 4.0 12.0 0.00 0.04 0.00 56 1011.8
20260906174805 96 49 4.0 12.0 0.00 0.04 0.00 54 1011.8
20260906174538 96 28 3.0 12.0 0.00 0.04 0.00 54 1011.9
20260906174444 96 42 3.0 12.0 0.00 0.04 0.00 55 1011.9
20260906174330 96 18 4.0 12.0 0.00 0.04 0.00 53 1011.9
20260906174256 96 275 5.0 12.0 0.00 0.04 0.00 54 1011.9
20260906174123 96 347 4.0 12.0 0.00 0.04 0.00 55 1012.0
20260906174030 96 342 4.0 12.0 0.00 0.04 0.00 55 1011.9
20260906173921 96 9 5.0 12.0 0.00 0.04 0.00 56 1011.9
20260906173848 96 355 6.0 12.0 0.00 0.04 0.00 55 1012.0
20260906173734 96 325 7.0 12.0 0.00 0.04 0.00 54 1011.9
20260906173620 96 290 8.0 12.0 0.00 0.04 0.00 55 1012.0
20260906173528 96 334 9.0 12.0 0.00 0.04 0.00 57 1011.9
20260906173454 96 342 7.0 12.0 0.00 0.04 0.00 55 1011.9
20260906173323 96 22 4.0 11.0 0.00 0.04 0.00 55 1011.9
20260906173253 96 24 4.0 11.0 0.00 0.04 0.00 55 1011.9
20260906173026 96 316 5.0 11.0 0.00 0.04 0.00 56 1011.9
20260906172932 96 305 5.0 11.0 0.00 0.04 0.00 54 1012.0
20260906172824 96 296 7.0 11.0 0.00 0.04 0.00 54 1011.9
20260906172730 96 306 8.0 11.0 0.00 0.04 0.00 55 1012.0
20260906172636 96 348 8.0 11.0 0.00 0.04 0.00 57 1011.9
20260906172523 96 319 8.0 11.0 0.00 0.04 0.00 56 1012.0
20260906172429 96 341 7.0 11.0 0.00 0.04 0.00 56 1011.9
20260906172334 96 10 5.0 10.0 0.00 0.04 0.00 55 1011.9
20260906172244 96 310 3.0 11.0 0.00 0.04 0.00 54 1011.9
20260906172130 96 298 3.0 13.0 0.00 0.04 0.00 55 1011.9
20260906172038 96 323 3.0 13.0 0.00 0.04 0.00 55 1011.9
20260906171925 96 28 4.0 13.0 0.00 0.04 0.00 55 1011.9
20260906171832 96 293 5.0 13.0 0.00 0.04 0.00 55 1012.0
20260906171807 96 344 5.0 13.0 0.00 0.04 0.00 55 1012.0
20260906171539 96 5 3.0 13.0 0.00 0.04 0.00 55 1012.0
20260906171424 96 317 6.0 13.0 0.00 0.04 0.00 54 1012.1
20260906171351 96 325 8.0 13.0 0.00 0.04 0.00 55 1012.0
20260906171237 96 317 7.0 11.0 0.00 0.04 0.00 55 1011.9
20260906171123 95 340 6.0 11.0 0.00 0.04 0.00 56 1011.9
20260906171032 95 312 4.0 10.0 0.00 0.04 0.00 57 1012.0
20260906170920 95 355 5.0 10.0 0.00 0.04 0.00 60 1012.0
20260906170828 95 5 6.0 10.0 0.00 0.04 0.00 56 1012.0
20260906170735 95 338 6.0 10.0 0.00 0.04 0.00 57 1012.1
20260906170623 95 13 6.0 10.0 0.00 0.04 0.00 57 1012.0
20260906170531 95 344 5.0 9.0 0.00 0.04 0.00 58 1012.0
20260906170422 95 5 4.0 9.0 0.00 0.04 0.00 57 1012.0
20260906170330 95 360 4.0 9.0 0.00 0.04 0.00 57 1011.9
20260906170302 95 5 4.0 9.0 0.00 0.04 0.00 57 1011.9
20260906170054 95 297 3.0 10.0 0.00 0.04 0.00 57 1012.0
20260906165924 95 268 3.0 10.0 0.00 0.04 0.00 55 1011.9
20260906165832 95 272 3.0 10.0 0.00 0.04 0.00 56 1012.0
20260906165719 95 355 4.0 10.0 0.00 0.04 0.00 56 1012.0
20260906165625 95 310 4.0 10.0 0.00 0.04 0.00 58 1012.1
20260906165532 95 344 4.0 10.0 0.00 0.04 0.00 58 1012.0
20260906165441 95 346 3.0 10.0 0.00 0.04 0.00 58 1012.1
20260906165346 95 310 4.0 10.0 0.00 0.04 0.00 58 1012.1
20260906165237 94 350 5.0 10.0 0.00 0.04 0.00 59 1012.1
20260906165124 94 323 5.0 8.0 0.00 0.04 0.00 60 1012.1
20260906165031 94 5 5.0 8.0 0.00 0.04 0.00 63 1012.1
20260906164918 94 75 3.0 6.0 0.00 0.04 0.00 58 1012.1
20260906164826 94 355 3.0 9.0 0.00 0.04 0.00 60 1012.0
20260906164758 94 5 4.0 9.0 0.00 0.04 0.00 60 1012.0
20260906164531 94 5 3.0 9.0 0.00 0.04 0.00 59 1012.2
20260906164438 94 13 2.0 9.0 0.00 0.04 0.00 58 1012.1
20260906164325 94 92 2.0 9.0 0.00 0.04 0.00 57 1012.1
20260906164231 94 63 3.0 9.0 0.00 0.04 0.00 59 1012.2
20260906164122 94 17 4.0 9.0 0.00 0.04 0.00 58 1012.3
20260906164048 94 335 4.0 9.0 0.00 0.04 0.00 58 1012.3
20260906163934 94 316 5.0 9.0 0.00 0.04 0.00 59 1012.3
20260906163821 94 331 5.0 9.0 0.00 0.04 0.00 59 1012.3
20260906163728 94 334 4.0 6.0 0.00 0.04 0.00 59 1012.4
20260906163619 94 285 3.0 7.0 0.00 0.04 0.00 60 1012.4
20260906163524 93 355 3.0 6.0 0.00 0.04 0.00 60 1012.4
20260906163432 93 333 3.0 6.0 0.00 0.04 0.00 59 1012.4
20260906163400 93 23 3.0 6.0 0.00 0.04 0.00 61 1012.4
20260906163330 93 5 2.0 6.0 0.00 0.04 0.00 59 1012.4
20260906163043 93 39 3.0 6.0 0.00 0.04 0.00 60 1012.4
20260906162932 93 35 3.0 6.0 0.00 0.04 0.00 63 1012.5
20260906162839 93 346 3.0 6.0 0.00 0.04 0.00 61 1012.4
20260906162725 92 9 4.0 6.0 0.00 0.04 0.00 61 1012.5
20260906162632 92 355 4.0 6.0 0.00 0.04 0.00 61 1012.5
20260906162519 92 327 2.0 7.0 0.00 0.04 0.00 60 1012.5
20260906162425 93 348 2.0 7.0 0.00 0.04 0.00 60 1012.5
20260906162335 92 179 3.0 7.0 0.00 0.04 0.00 59 1012.5
20260906162221 93 163 3.0 7.0 0.00 0.04 0.00 61 1012.5
20260906162130 93 116 4.0 7.0 0.00 0.04 0.00 61 1012.6
20260906162036 93 121 3.0 7.0 0.00 0.04 0.00 63 1012.5
20260906161943 93 126 2.0 5.0 0.00 0.04 0.00 62 1012.6
20260906161911 93 173 1.0 5.0 0.00 0.04 0.00 60 1012.6
20260906161802 93 173 1.0 5.0 0.00 0.04 0.00 61 1012.6
20260906161535 92 20 2.0 5.0 0.00 0.04 0.00 63 1012.6
20260906161442 92 15 3.0 5.0 0.00 0.04 0.00 61 1012.6
20260906161348 92 31 3.0 5.0 0.00 0.04 0.00 61 1012.6
20260906161254 92 334 2.0 5.0 0.00 0.04 0.00 61 1012.7
20260906161120 92 298 1.0 5.0 0.00 0.04 0.00 61 1012.7
20260906161051 92 262 1.0 5.0 0.00 0.04 0.00 61 1012.7
20260906160918 92 258 2.0 5.0 0.00 0.04 0.00 60 1012.7
20260906160825 92 208 3.0 5.0 0.00 0.04 0.00 60 1012.7
20260906160753 92 240 3.0 5.0 0.00 0.04 0.00 61 1012.7
20260906160639 92 285 3.0 6.0 0.00 0.04 0.00 60 1012.7
20260906160527 92 179 3.0 6.0 0.00 0.04 0.00 59 1012.7
20260906160418 92 219 3.0 6.0 0.00 0.04 0.00 59 1012.7
20260906160326 92 289 3.0 6.0 0.00 0.04 0.00 58 1012.7
20260906160256 92 221 3.0 6.0 0.00 0.04 0.00 62 1012.7
20260906160029 92 300 4.0 6.0 0.00 0.04 0.00 61 1012.6
20260906155936 92 360 4.0 6.0 0.00 0.04 0.00 62 1012.7
20260906155827 92 24 5.0 7.0 0.00 0.04 0.00 64 1012.7
20260906155732 92 355 4.0 6.0 0.00 0.04 0.00 62 1012.7
20260906155619 92 360 4.0 5.0 0.00 0.04 0.00 61 1012.7
20260906155546 92 355 3.0 5.0 0.00 0.04 0.00 61 1012.7
20260906155432 92 336 2.0 5.0 0.00 0.04 0.00 62 1012.7
20260906155357 92 326 3.0 5.0 0.00 0.04 0.00 63 1012.7
20260906155228 92 329 3.0 5.0 0.00 0.04 0.00 63 1012.6
20260906155134 92 318 3.0 5.0 0.00 0.04 0.00 63 1012.7
20260906155020 92 5 2.0 5.0 0.00 0.04 0.00 63 1012.7
20260906154927 92 13 2.0 5.0 0.00 0.04 0.00 62 1012.7
20260906154807 92 61 2.0 6.0 0.00 0.04 0.00 63 1012.7
20260906154539 92 346 3.0 6.0 0.00 0.04 0.00 64 1012.6
20260906154427 91 17 3.0 6.0 0.00 0.04 0.00 64 1012.7
20260906154334 91 355 4.0 6.0 0.00 0.04 0.00 66 1012.6
20260906154219 91 12 3.0 6.0 0.00 0.04 0.00 64 1012.7
20260906154127 91 24 3.0 6.0 0.00 0.04 0.00 62 1012.7
20260906154019 91 20 3.0 6.0 0.00 0.04 0.00 63 1012.7
20260906153946 91 335 2.0 5.0 0.00 0.04 0.00 64 1012.7
20260906153853 91 346 2.0 4.0 0.00 0.04 0.00 63 1012.7
20260906153718 91 328 2.0 4.0 0.00 0.04 0.00 63 1012.7
20260906153624 91 329 2.0 4.0 0.00 0.04 0.00 64 1012.7
20260906153530 91 65 1.0 4.0 0.00 0.04 0.00 63 1012.7
20260906153422 90 82 1.0 6.0 0.00 0.04 0.00 63 1012.7
20260906153329 90 81 2.0 6.0 0.00 0.04 0.00 64 1012.7
20260906153300 90 82 2.0 6.0 0.00 0.04 0.00 65 1012.7
20260906153032 90 348 3.0 6.0 0.00 0.04 0.00 66 1012.7
20260906152959 90 28 3.0 6.0 0.00 0.04 0.00 66 1012.6
20260906152829 90 336 2.0 6.0 0.00 0.04 0.00 65 1012.6
20260906152736 90 360 3.0 6.0 0.00 0.04 0.00 65 1012.5
20260906152622 90 360 3.0 6.0 0.00 0.04 0.00 67 1012.6
20260906152528 90 346 1.0 4.0 0.00 0.04 0.00 66 1012.7
20260906152434 90 47 1.0 5.0 0.00 0.04 0.00 65 1012.6
20260906152340 90 9 2.0 5.0 0.00 0.04 0.00 64 1012.6
20260906152229 90 9 2.0 5.0 0.00 0.04 0.00 65 1012.7
20260906152134 90 19 1.0 5.0 0.00 0.04 0.00 65 1012.7
20260906152042 90 360 0.0 5.0 0.00 0.04 0.00 67 1012.7
20260906151928 90 360 1.0 5.0 0.00 0.04 0.00 66 1012.7
20260906151810 89 360 2.0 5.0 0.00 0.04 0.00 66 1012.6
20260906151543 89 39 2.0 3.0 0.00 0.04 0.00 66 1012.6
20260906151428 89 60 1.0 3.0 0.00 0.04 0.00 65 1012.5
20260906151335 89 66 1.0 3.0 0.00 0.04 0.00 65 1012.6
20260906151221 89 61 1.0 3.0 0.00 0.04 0.00 65 1012.6
20260906151130 89 73 1.0 3.0 0.00 0.04 0.00 66 1012.6
20260906151020 89 123 1.0 3.0 0.00 0.04 0.00 66 1012.6
20260906150927 89 135 1.0 3.0 0.00 0.04 0.00 65 1012.6
20260906150833 89 184 1.0 3.0 0.00 0.04 0.00 65 1012.5
20260906150719 89 184 1.0 3.0 0.00 0.04 0.00 66 1012.6
20260906150625 89 15 0.0 2.0 0.00 0.04 0.00 68 1012.5
20260906150532 89 15 1.0 2.0 0.00 0.04 0.00 66 1012.5
20260906150444 89 192 0.0 2.0 0.00 0.04 0.00 67 1012.5
20260906150349 88 157 0.0 3.0 0.00 0.04 0.00 67 1012.5
20260906150259 88 157 0.0 3.0 0.00 0.04 0.00 67 1012.5
20260906150032 88 157 0.0 3.0 0.00 0.04 0.00 67 1012.5
20260906145920 88 157 1.0 3.0 0.00 0.04 0.00 66 1012.4
20260906145831 88 157 1.0 3.0 0.00 0.04 0.00 67 1012.4
20260906145737 88 157 1.0 4.0 0.00 0.04 0.00 66 1012.4
20260906145625 88 157 0.0 5.0 0.00 0.04 0.00 66 1012.4
20260906145532 88 157 1.0 5.0 0.00 0.04 0.00 66 1012.5
20260906145420 88 157 1.0 5.0 0.00 0.04 0.00 67 1012.4
20260906145328 88 157 2.0 5.0 0.00 0.04 0.00 67 1012.4
20260906145219 88 173 1.0 5.0 0.00 0.04 0.00 67 1012.4
20260906145125 88 212 1.0 5.0 0.00 0.04 0.00 66 1012.5
20260906145033 88 313 1.0 5.0 0.00 0.04 0.00 68 1012.5
20260906144920 88 313 2.0 5.0 0.00 0.04 0.00 69 1012.4
20260906144826 88 313 3.0 5.0 0.00 0.04 0.00 69 1012.4
20260906144803 87 323 3.0 5.0 0.00 0.04 0.00 69 1012.4
20260906144536 87 13 2.0 4.0 0.00 0.04 0.00 70 1012.5
20260906144421 87 321 1.0 3.0 0.00 0.04 0.00 71 1012.5
20260906144348 87 277 0.0 3.0 0.00 0.04 0.00 71 1012.4
20260906144255 87 238 1.0 2.0 0.00 0.04 0.00 70 1012.3
20260906144127 86 238 1.0 2.0 0.00 0.04 0.00 69 1012.4
20260906144034 86 238 1.0 3.0 0.00 0.04 0.00 69 1012.3
20260906143940 86 219 1.0 4.0 0.00 0.04 0.00 69 1012.4
20260906143825 86 114 1.0 4.0 0.00 0.04 0.00 69 1012.3
20260906143733 86 114 1.0 4.0 0.00 0.04 0.00 70 1012.3
20260906143620 86 114 0.0 4.0 0.00 0.04 0.00 71 1012.3
20260906143529 86 114 0.0 4.0 0.00 0.04 0.00 70 1012.3
20260906143420 86 114 1.0 4.0 0.00 0.04 0.00 71 1012.3
20260906143347 86 114 2.0 4.0 0.00 0.04 0.00 70 1012.3
20260906143257 86 114 2.0 4.0 0.00 0.04 0.00 68 1012.3
20260906143031 86 251 2.0 3.0 0.00 0.04 0.00 68 1012.4
20260906142920 86 197 2.0 3.0 0.00 0.04 0.00 69 1012.4
20260906142829 86 168 1.0 4.0 0.00 0.04 0.00 70 1012.4
20260906142736 86 111 1.0 3.0 0.00 0.04 0.00 70 1012.4
20260906142622 86 30 0.0 4.0 0.00 0.04 0.00 70 1012.4
20260906142528 86 30 1.0 4.0 0.00 0.04 0.00 70 1012.4
20260906142435 86 30 1.0 4.0 0.00 0.04 0.00 71 1012.4
20260906142324 86 30 1.0 4.0 0.00 0.04 0.00 69 1012.4
20260906142231 86 167 0.0 4.0 0.00 0.04 0.00 69 1012.4
20260906142137 86 218 0.0 4.0 0.00 0.04 0.00 69 1012.4
20260906142023 86 218 1.0 4.0 0.00 0.04 0.00 69 1012.4
20260906141930 85 128 2.0 4.0 0.00 0.04 0.00 69 1012.5
20260906141811 85 128 1.0 4.0 0.00 0.04 0.00 69 1012.4
20260906141545 85 86 2.0 4.0 0.00 0.04 0.00 70 1012.5
20260906141450 85 86 2.0 4.0 0.00 0.04 0.00 70 1012.4
20260906141336 85 79 2.0 4.0 0.00 0.04 0.00 70 1012.5
20260906141222 85 96 2.0 4.0 0.00 0.04 0.00 70 1012.4
20260906141132 85 88 2.0 4.0 0.00 0.04 0.00 71 1012.4
20260906141020 85 119 2.0 4.0 0.00 0.04 0.00 71 1012.4
20260906140928 85 84 3.0 4.0 0.00 0.04 0.00 70 1012.4
20260906140836 85 114 2.0 4.0 0.00 0.04 0.00 71 1012.5
20260906140724 84 111 1.0 4.0 0.00 0.04 0.00 71 1012.5
20260906140635 84 63 1.0 4.0 0.00 0.04 0.00 72 1012.5
20260906140522 84 68 1.0 4.0 0.00 0.04 0.00 71 1012.4
20260906140429 84 55 1.0 4.0 0.00 0.04 0.00 72 1012.4
20260906140355 84 55 2.0 4.0 0.00 0.04 0.00 72 1012.4
20260906140326 84 58 2.0 4.0 0.00 0.04 0.00 73 1012.4
20260906140023 84 113 2.0 4.0 0.00 0.04 0.00 72 1012.4
20260906135930 84 140 2.0 4.0 0.00 0.04 0.00 72 1012.5
20260906135836 84 107 2.0 4.0 0.00 0.04 0.00 72 1012.5
20260906135724 83 86 1.0 3.0 0.00 0.04 0.00 73 1012.5
20260906135630 83 107 1.0 3.0 0.00 0.04 0.00 72 1012.5
20260906135521 83 78 1.0 3.0 0.00 0.04 0.00 73 1012.5
20260906135428 83 59 1.0 3.0 0.00 0.04 0.00 73 1012.5
20260906135334 83 71 1.0 5.0 0.00 0.04 0.00 73 1012.5
20260906135220 83 117 1.0 5.0 0.00 0.04 0.00 73 1012.5
20260906135147 83 82 2.0 5.0 0.00 0.04 0.00 73 1012.5
20260906135031 83 89 1.0 5.0 0.00 0.04 0.00 73 1012.5
20260906134937 82 59 1.0 5.0 0.00 0.04 0.00 73 1012.5
20260906134829 82 82 2.0 5.0 0.00 0.04 0.00 73 1012.5
20260906134757 82 82 2.0 5.0 0.00 0.04 0.00 74 1012.5
20260906134531 82 69 3.0 5.0 0.00 0.04 0.00 74 1012.5
20260906134438 82 42 3.0 5.0 0.00 0.04 0.00 74 1012.5
20260906134329 82 33 3.0 6.0 0.00 0.04 0.00 74 1012.5
20260906134234 82 105 2.0 6.0 0.00 0.04 0.00 75 1012.4
20260906134121 82 84 3.0 6.0 0.00 0.04 0.00 74 1012.4
20260906134029 82 138 3.0 7.0 0.00 0.04 0.00 74 1012.5
20260906133936 82 75 3.0 7.0 0.00 0.04 0.00 74 1012.5
20260906133824 82 107 2.0 7.0 0.00 0.04 0.00 75 1012.4
20260906133736 82 57 3.0 7.0 0.00 0.04 0.00 74 1012.5
20260906133624 82 69 3.0 7.0 0.00 0.04 0.00 75 1012.4
20260906133531 82 114 2.0 7.0 0.00 0.04 0.00 75 1012.5
20260906133439 82 61 3.0 7.0 0.00 0.04 0.00 75 1012.5
20260906133344 81 68 3.0 7.0 0.00 0.04 0.00 75 1012.5
20260906133318 81 113 3.0 6.0 0.00 0.04 0.00 75 1012.5
20260906133031 81 126 3.0 6.0 0.00 0.04 0.00 74 1012.7
20260906132919 81 116 3.0 6.0 0.00 0.04 0.00 76 1012.7
20260906132826 81 127 3.0 6.0 0.00 0.04 0.00 75 1012.7
20260906132734 81 121 3.0 6.0 0.00 0.04 0.00 74 1012.7
20260906132624 81 59 3.0 6.0 0.00 0.04 0.00 75 1012.7
20260906132531 81 69 3.0 7.0 0.00 0.04 0.00 76 1012.8
20260906132458 81 122 3.0 6.0 0.00 0.04 0.00 76 1012.7
20260906132323 81 119 2.0 6.0 0.00 0.04 0.00 75 1012.7
20260906132230 81 57 2.0 6.0 0.00 0.04 0.00 75 1012.8
20260906132158 81 102 2.0 6.0 0.00 0.04 0.00 75 1012.8
20260906132023 81 82 3.0 6.0 0.00 0.04 0.00 75 1012.8
20260906131935 81 63 3.0 6.0 0.00 0.04 0.00 75 1012.8
20260906131823 81 118 3.0 6.0 0.00 0.04 0.00 75 1012.9
20260906131754 81 117 2.0 6.0 0.00 0.04 0.00 75 1012.9
20260906131526 81 117 1.0 6.0 0.00 0.04 0.00 75 1013.0
20260906131437 81 96 1.0 6.0 0.00 0.04 0.00 75 1013.0
20260906131324 81 111 2.0 6.0 0.00 0.04 0.00 75 1012.9
20260906131231 81 119 3.0 6.0 0.00 0.04 0.00 75 1013.0
20260906131119 81 114 2.0 6.0 0.00 0.04 0.00 75 1013.0
20260906131027 81 133 2.0 5.0 0.00 0.04 0.00 76 1013.0
20260906130933 81 94 2.0 5.0 0.00 0.04 0.00 75 1013.0
20260906130824 81 45 3.0 5.0 0.00 0.04 0.00 75 1013.0
20260906130750 81 111 3.0 5.0 0.00 0.04 0.00 75 1013.1
20260906130636 81 56 3.0 5.0 0.00 0.04 0.00 76 1013.1
20260906130544 81 111 3.0 5.0 0.00 0.04 0.00 76 1013.0
20260906130431 81 122 3.0 5.0 0.00 0.04 0.00 76 1013.0
20260906130339 80 132 2.0 3.0 0.00 0.04 0.00 76 1013.0
20260906130313 80 51 2.0 3.0 0.00 0.04 0.00 76 1013.0
20260906130025 80 92 2.0 3.0 0.00 0.04 0.00 77 1013.1
20260906125932 80 80 1.0 3.0 0.00 0.04 0.00 76 1013.1
20260906125858 80 103 1.0 3.0 0.00 0.04 0.00 75 1013.1
20260906125725 80 103 2.0 3.0 0.00 0.04 0.00 75 1013.1
20260906125637 80 114 1.0 3.0 0.00 0.04 0.00 75 1013.1
20260906125524 80 138 1.0 3.0 0.00 0.04 0.00 76 1013.1
20260906125432 79 138 2.0 3.0 0.00 0.04 0.00 76 1013.1
20260906125319 79 138 2.0 3.0 0.00 0.04 0.00 76 1013.1
20260906125226 79 128 2.0 3.0 0.00 0.04 0.00 77 1013.0
20260906125132 79 195 2.0 3.0 0.00 0.04 0.00 76 1013.0
20260906125043 79 195 2.0 3.0 0.00 0.04 0.00 76 1013.0
20260906124929 79 195 1.0 3.0 0.00 0.04 0.00 77 1013.0
20260906124856 79 186 1.0 3.0 0.00 0.04 0.00 77 1013.1
20260906124806 78 186 2.0 3.0 0.00 0.04 0.00 77 1013.1
20260906124519 78 186 2.0 3.0 0.00 0.04 0.00 77 1013.1
20260906124429 78 186 2.0 3.0 0.00 0.04 0.00 77 1013.0
20260906124335 78 186 1.0 3.0 0.00 0.04 0.00 78 1013.1
20260906124223 78 157 0.0 1.0 0.00 0.04 0.00 79 1013.0
20260906124129 78 157 0.0 2.0 0.00 0.04 0.00 79 1013.0
20260906124035 78 157 0.0 2.0 0.00 0.04 0.00 79 1013.1
20260906123925 78 157 0.0 2.0 0.00 0.04 0.00 79 1013.1
20260906123832 77 157 0.0 2.0 0.00 0.04 0.00 80 1013.0
20260906123718 77 157 0.0 2.0 0.00 0.04 0.00 80 1013.0
20260906123626 77 157 0.0 2.0 0.00 0.04 0.00 79 1013.0
20260906123532 77 157 0.0 2.0 0.00 0.04 0.00 80 1013.0
20260906123419 77 157 0.0 2.0 0.00 0.04 0.00 80 1013.0
20260906123330 77 157 0.0 3.0 0.00 0.04 0.00 80 1013.0
20260906123304 76 157 0.0 3.0 0.00 0.04 0.00 82 1013.0
20260906123018 76 157 0.0 3.0 0.00 0.04 0.00 81 1013.1
20260906122926 76 157 0.0 3.0 0.00 0.04 0.00 81 1012.9
20260906122838 76 157 0.0 3.0 0.00 0.04 0.00 81 1013.0
20260906122724 76 157 1.0 3.0 0.00 0.04 0.00 81 1013.0
20260906122633 76 157 2.0 3.0 0.00 0.04 0.00 81 1013.0
20260906122519 76 203 1.0 3.0 0.00 0.04 0.00 81 1013.1
20260906122445 76 200 1.0 3.0 0.00 0.04 0.00 82 1013.1
20260906122332 75 182 1.0 3.0 0.00 0.04 0.00 82 1013.0
20260906122243 75 182 1.0 3.0 0.00 0.04 0.00 82 1013.1
20260906122210 75 182 1.0 2.0 0.00 0.04 0.00 82 1013.0
20260906121932 75 122 1.0 2.0 0.00 0.04 0.00 82 1013.0
20260906121859 75 122 1.0 2.0 0.00 0.04 0.00 82 1013.0
20260906121831 75 122 1.0 2.0 0.00 0.04 0.00 82 1012.9
20260906121527 75 134 0.0 2.0 0.00 0.04 0.00 82 1013.0
20260906121433 75 139 0.0 1.0 0.00 0.04 0.00 82 1012.8
20260906121338 75 139 0.0 0.0 0.00 0.04 0.00 82 1012.9
20260906121245 75 139 0.0 0.0 0.00 0.04 0.00 82 1012.9
20260906121151 75 139 0.0 1.0 0.00 0.04 0.00 82 1012.9
20260906121036 75 139 0.0 1.0 0.00 0.04 0.00 82 1012.9
20260906120922 75 139 0.0 1.0 0.00 0.04 0.00 82 1012.9
20260906120833 75 139 0.0 1.0 0.00 0.04 0.00 82 1012.9
20260906120800 75 139 0.0 1.0 0.00 0.04 0.00 82 1012.9
20260906120544 75 139 0.0 1.0 0.00 0.04 0.00 82 1012.9
20260906120430 75 139 0.0 2.0 0.00 0.04 0.00 82 1012.9
20260906120337 75 139 0.0 2.0 0.00 0.04 0.00 82 1012.9
20260906120253 75 139 0.0 3.0 0.00 0.04 0.00 82 1012.9
20260906120026 75 89 0.0 3.0 0.00 0.04 0.00 82 1012.9
20260906115934 75 109 0.0 3.0 0.00 0.04 0.00 82 1013.0
20260906115820 75 109 0.0 3.0 0.00 0.04 0.00 82 1012.9
20260906115726 75 109 0.0 3.0 0.00 0.04 0.00 82 1013.0
20260906115654 75 109 1.0 3.0 0.00 0.04 0.00 82 1013.0
20260906115525 75 113 2.0 3.0 0.00 0.04 0.00 82 1013.0
20260906115451 75 109 2.0 3.0 0.00 0.04 0.00 82 1012.9
20260906115337 75 124 2.0 3.0 0.00 0.04 0.00 82 1012.9
20260906115246 75 118 1.0 3.0 0.00 0.04 0.00 82 1012.9
20260906115131 75 113 1.0 3.0 0.00 0.04 0.00 82 1012.9
20260906115035 75 79 0.0 3.0 0.00 0.04 0.00 82 1012.9
20260906114922 75 101 1.0 3.0 0.00 0.04 0.00 82 1012.9
20260906114833 75 101 1.0 3.0 0.00 0.04 0.00 82 1013.0
20260906114803 75 105 1.0 3.0 0.00 0.04 0.00 82 1013.0
20260906114536 75 141 2.0 3.0 0.00 0.04 0.00 82 1013.0
20260906114423 75 141 2.0 3.0 0.00 0.04 0.00 82 1013.0
20260906114334 75 137 2.0 3.0 0.00 0.04 0.00 82 1012.9
20260906114222 75 123 2.0 3.0 0.00 0.04 0.00 82 1012.9
20260906114128 75 126 1.0 3.0 0.00 0.04 0.00 82 1013.0
20260906114054 75 94 0.0 3.0 0.00 0.04 0.00 82 1013.1
20260906113919 75 66 0.0 3.0 0.00 0.04 0.00 81 1013.0
20260906113826 75 66 0.0 3.0 0.00 0.04 0.00 81 1013.1
20260906113753 75 67 1.0 3.0 0.00 0.04 0.00 82 1013.0
20260906113643 75 67 2.0 3.0 0.00 0.04 0.00 82 1013.0
20260906113530 75 81 2.0 3.0 0.00 0.04 0.00 82 1012.9
20260906113437 75 83 1.0 3.0 0.00 0.04 0.00 81 1013.0
20260906113323 75 105 0.0 3.0 0.00 0.04 0.00 80 1013.0
20260906113258 75 109 0.0 3.0 0.00 0.04 0.00 80 1013.0
20260906113052 75 331 0.0 3.0 0.00 0.04 0.00 80 1013.1
20260906112919 75 331 0.0 3.0 0.00 0.04 0.00 81 1013.1
20260906112825 75 331 0.0 3.0 0.00 0.04 0.00 81 1013.0
20260906112733 75 332 0.0 3.0 0.00 0.04 0.00 80 1013.0
20260906112620 75 331 1.0 3.0 0.00 0.04 0.00 81 1012.9
20260906112531 75 331 1.0 3.0 0.00 0.04 0.00 81 1013.0
20260906112419 75 322 2.0 3.0 0.00 0.04 0.00 81 1013.0
20260906112327 75 315 1.0 3.0 0.00 0.04 0.00 81 1013.0
20260906112233 75 284 1.0 3.0 0.00 0.04 0.00 81 1013.1
20260906112118 75 227 0.0 3.0 0.00 0.04 0.00 81 1013.0
20260906112024 75 227 0.0 3.0 0.00 0.04 0.00 81 1013.0
20260906111936 75 231 1.0 3.0 0.00 0.04 0.00 81 1013.0
20260906111903 75 231 1.0 3.0 0.00 0.04 0.00 81 1013.0
20260906111833 75 202 1.0 2.0 0.00 0.04 0.00 81 1012.9
20260906111524 75 127 1.0 2.0 0.00 0.04 0.00 81 1012.8
20260906111432 75 127 1.0 3.0 0.00 0.04 0.00 81 1012.8
20260906111342 75 127 1.0 3.0 0.00 0.04 0.00 81 1012.8
20260906111227 75 121 1.0 3.0 0.00 0.04 0.00 80 1012.8
20260906111135 75 109 1.0 3.0 0.00 0.04 0.00 80 1012.8
20260906111021 75 82 1.0 3.0 0.00 0.04 0.00 80 1012.8
20260906110928 75 85 1.0 3.0 0.00 0.04 0.00 80 1012.7
20260906110820 75 121 1.0 3.0 0.00 0.04 0.00 81 1012.7
20260906110726 75 130 1.0 3.0 0.00 0.04 0.00 81 1012.7
20260906110632 75 137 1.0 3.0 0.00 0.04 0.00 80 1012.6
20260906110519 75 133 0.0 2.0 0.00 0.04 0.00 80 1012.5
20260906110426 75 94 0.0 1.0 0.00 0.04 0.00 80 1012.6
20260906110333 75 94 0.0 1.0 0.00 0.04 0.00 79 1012.5
20260906110308 75 80 0.0 1.0 0.00 0.04 0.00 79 1012.5
20260906110021 75 80 0.0 1.0 0.00 0.04 0.00 80 1012.5
20260906105927 75 80 0.0 1.0 0.00 0.04 0.00 80 1012.6
20260906105834 75 80 0.0 1.0 0.00 0.04 0.00 80 1012.5
20260906105725 75 225 0.0 1.0 0.00 0.04 0.00 79 1012.4
20260906105652 75 225 0.0 1.0 0.00 0.04 0.00 80 1012.4
20260906105518 75 225 0.0 1.0 0.00 0.04 0.00 80 1012.3
20260906105425 75 225 0.0 0.0 0.00 0.04 0.00 80 1012.3
20260906105332 75 225 0.0 0.0 0.00 0.04 0.00 80 1012.2
20260906105219 75 225 0.0 1.0 0.00 0.04 0.00 80 1012.2
20260906105129 75 225 0.0 1.0 0.00 0.04 0.00 80 1012.3
20260906105055 75 225 0.0 1.0 0.00 0.04 0.00 80 1012.3
20260906104920 75 225 0.0 1.0 0.00 0.04 0.00 79 1012.3
20260906104826 75 225 0.0 2.0 0.00 0.04 0.00 80 1012.4
20260906104756 75 225 0.0 4.0 0.00 0.04 0.00 80 1012.4
20260906104532 75 225 0.0 4.0 0.00 0.04 0.00 80 1012.4
20260906104440 75 280 0.0 4.0 0.00 0.04 0.00 80 1012.3
20260906104325 75 285 0.0 4.0 0.00 0.04 0.00 80 1012.4
20260906104231 75 285 0.0 4.0 0.00 0.04 0.00 80 1012.3
20260906104118 75 296 1.0 4.0 0.00 0.04 0.00 80 1012.3
20260906104026 75 336 2.0 4.0 0.00 0.04 0.00 80 1012.3
20260906103935 75 312 2.0 4.0 0.00 0.04 0.00 80 1012.3
20260906103823 75 315 2.0 5.0 0.00 0.04 0.00 80 1012.3
20260906103751 75 335 3.0 6.0 0.00 0.04 0.00 80 1012.3
20260906103618 75 319 3.0 6.0 0.00 0.04 0.00 80 1012.3
20260906103544 75 333 2.0 6.0 0.00 0.04 0.00 80 1012.2
20260906103429 75 315 1.0 8.0 0.00 0.04 0.00 80 1012.2
20260906103337 75 325 1.0 8.0 0.00 0.04 0.00 80 1012.2
20260906103310 75 317 2.0 8.0 0.00 0.04 0.00 80 1012.2
20260906103023 75 355 4.0 8.0 0.00 0.04 0.00 80 1012.2
20260906102929 75 342 4.0 8.0 0.00 0.04 0.00 80 1012.2
20260906102837 75 336 4.0 9.0 0.00 0.04 0.00 80 1012.3
20260906102727 75 333 5.0 9.0 0.00 0.04 0.00 81 1012.2
20260906102635 75 336 6.0 9.0 0.00 0.04 0.00 81 1012.3
20260906102522 75 355 6.0 9.0 0.00 0.04 0.00 81 1012.2
20260906102429 75 333 5.0 9.0 0.00 0.04 0.00 81 1012.2
20260906102336 75 330 5.0 9.0 0.00 0.04 0.00 81 1012.2
20260906102226 75 319 6.0 9.0 0.00 0.04 0.00 81 1012.2
20260906102133 75 333 6.0 9.0 0.00 0.04 0.00 81 1012.2
20260906102019 75 339 5.0 9.0 0.00 0.04 0.00 81 1012.2
20260906101926 75 338 3.0 6.0 0.00 0.04 0.00 81 1012.0
20260906101854 75 330 1.0 6.0 0.00 0.04 0.00 81 1012.0
20260906101807 75 339 1.0 6.0 0.00 0.04 0.00 81 1012.0
20260906101519 75 322 2.0 6.0 0.00 0.04 0.00 81 1011.9
20260906101426 75 317 3.0 6.0 0.00 0.04 0.00 81 1012.0
20260906101333 75 305 3.0 6.0 0.00 0.04 0.00 81 1012.0
20260906101220 75 329 3.0 6.0 0.00 0.04 0.00 81 1012.0
20260906101128 75 330 4.0 6.0 0.00 0.04 0.00 81 1012.1
20260906101058 75 311 4.0 6.0 0.00 0.04 0.00 82 1012.1
20260906100925 75 321 4.0 7.0 0.00 0.04 0.00 82 1012.1
20260906100833 75 340 4.0 9.0 0.00 0.04 0.00 82 1012.1
20260906100720 75 318 4.0 9.0 0.00 0.04 0.00 82 1012.1
20260906100627 75 325 3.0 9.0 0.00 0.04 0.00 82 1012.1
20260906100534 75 327 4.0 9.0 0.00 0.04 0.00 82 1012.1
20260906100422 75 300 4.0 9.0 0.00 0.04 0.00 82 1012.1
20260906100349 75 323 4.0 9.0 0.00 0.04 0.00 82 1012.1
20260906100258 75 321 4.0 9.0 0.00 0.04 0.00 82 1012.1
20260906095934 75 311 6.0 9.0 0.00 0.04 0.00 82 1012.1
20260906095825 75 309 6.0 9.0 0.00 0.04 0.00 83 1012.0
20260906095731 75 313 5.0 9.0 0.00 0.04 0.00 83 1012.0
20260906095637 75 307 5.0 9.0 0.00 0.04 0.00 83 1011.9
20260906095523 75 333 5.0 8.0 0.00 0.04 0.00 83 1012.0
20260906095430 75 315 5.0 8.0 0.00 0.04 0.00 83 1011.9
20260906095322 75 322 4.0 8.0 0.00 0.04 0.00 83 1012.0
20260906095229 75 323 4.0 6.0 0.00 0.04 0.00 83 1012.0
20260906095134 75 325 3.0 5.0 0.00 0.04 0.00 83 1011.9
20260906095040 75 315 3.0 4.0 0.00 0.04 0.00 83 1012.0
20260906094925 75 329 2.0 4.0 0.00 0.04 0.00 83 1011.9
20260906094830 75 318 1.0 4.0 0.00 0.04 0.00 83 1011.9
20260906094805 75 323 1.0 4.0 0.00 0.04 0.00 83 1011.9
20260906094538 75 276 2.0 4.0 0.00 0.04 0.00 83 1012.0
20260906094423 75 283 2.0 4.0 0.00 0.04 0.00 84 1012.1
20260906094350 75 327 2.0 4.0 0.00 0.04 0.00 84 1012.1
20260906094237 75 313 2.0 4.0 0.00 0.04 0.00 84 1012.1
20260906094123 75 324 3.0 4.0 0.00 0.04 0.00 84 1012.2
20260906094034 75 302 2.0 4.0 0.00 0.04 0.00 84 1012.2
20260906093922 75 296 2.0 5.0 0.00 0.04 0.00 84 1012.2
20260906093829 75 281 1.0 5.0 0.00 0.04 0.00 83 1012.2
20260906093737 75 289 1.0 5.0 0.00 0.04 0.00 83 1012.1
20260906093624 75 312 1.0 5.0 0.00 0.04 0.00 84 1012.1
20260906093550 75 296 1.0 5.0 0.00 0.04 0.00 84 1012.1
20260906093459 75 296 1.0 5.0 0.00 0.04 0.00 84 1012.0
20260906093325 75 308 3.0 5.0 0.00 0.04 0.00 84 1011.9
20260906093256 75 283 3.0 5.0 0.00 0.04 0.00 84 1011.9
20260906093029 74 293 2.0 5.0 0.00 0.04 0.00 83 1011.9
20260906092919 74 318 0.0 3.0 0.00 0.04 0.00 83 1011.8
20260906092828 75 304 0.0 3.0 0.00 0.04 0.00 83 1011.8
20260906092755 75 278 0.0 3.0 0.00 0.04 0.00 83 1011.7
20260906092621 74 278 0.0 3.0 0.00 0.04 0.00 83 1011.7
20260906092529 75 278 1.0 3.0 0.00 0.04 0.00 83 1011.7
20260906092436 75 278 1.0 3.0 0.00 0.04 0.00 83 1011.7
20260906092327 75 286 1.0 3.0 0.00 0.04 0.00 84 1011.7
20260906092233 75 297 1.0 3.0 0.00 0.04 0.00 84 1011.7
20260906092121 75 242 2.0 3.0 0.00 0.04 0.00 84 1011.7
20260906092029 75 234 1.0 3.0 0.00 0.04 0.00 84 1011.8
20260906091937 75 222 1.0 4.0 0.00 0.04 0.00 84 1011.7
20260906091822 75 248 1.0 4.0 0.00 0.04 0.00 84 1011.8
20260906091755 75 248 2.0 5.0 0.00 0.04 0.00 84 1011.8
20260906091529 75 217 2.0 5.0 0.00 0.04 0.00 83 1012.0
20260906091435 75 234 1.0 6.0 0.00 0.04 0.00 84 1012.0
20260906091342 75 257 1.0 6.0 0.00 0.04 0.00 84 1012.0
20260906091249 75 257 1.0 6.0 0.00 0.04 0.00 84 1012.0
20260906091154 75 276 2.0 6.0 0.00 0.04 0.00 84 1012.1
20260906091043 75 241 2.0 6.0 0.00 0.04 0.00 84 1012.0
20260906090929 75 244 3.0 6.0 0.00 0.04 0.00 83 1012.0
20260906090837 75 240 2.0 6.0 0.00 0.04 0.00 83 1012.0
20260906090722 75 277 2.0 6.0 0.00 0.04 0.00 83 1012.0
20260906090648 75 242 2.0 6.0 0.00 0.04 0.00 83 1012.0
20260906090536 75 232 1.0 3.0 0.00 0.04 0.00 82 1012.1
20260906090427 75 194 1.0 2.0 0.00 0.04 0.00 82 1012.1
20260906090353 75 194 1.0 2.0 0.00 0.04 0.00 82 1012.1
20260906090303 75 194 0.0 2.0 0.00 0.04 0.00 82 1012.1
20260906090037 75 194 0.0 2.0 0.00 0.04 0.00 82 1012.0
20260906085945 75 194 0.0 2.0 0.00 0.04 0.00 82 1012.0
20260906085850 75 194 0.0 2.0 0.00 0.04 0.00 82 1012.1
20260906085719 75 194 0.0 2.0 0.00 0.04 0.00 82 1012.2
20260906085648 75 194 0.0 2.0 0.00 0.04 0.00 82 1012.3
20260906085554 76 194 1.0 2.0 0.00 0.04 0.00 81 1012.3
20260906085459 76 194 1.0 2.0 0.00 0.04 0.00 82 1012.3
20260906085323 76 194 0.0 2.0 0.00 0.04 0.00 82 1012.3
20260906085230 76 194 0.0 2.0 0.00 0.04 0.00 81 1012.3
20260906085138 76 194 0.0 2.0 0.00 0.04 0.00 81 1012.3
20260906085029 76 194 0.0 2.0 0.00 0.04 0.00 81 1012.2
20260906084936 76 194 0.0 3.0 0.00 0.04 0.00 81 1012.2
20260906084844 76 194 0.0 4.0 0.00 0.04 0.00 82 1012.2
20260906084753 76 194 0.0 4.0 0.00 0.04 0.00 81 1012.2
20260906084546 76 194 1.0 4.0 0.00 0.04 0.00 81 1012.1
20260906084435 76 198 0.0 4.0 0.00 0.04 0.00 81 1012.2
20260906084322 76 54 0.0 4.0 0.00 0.04 0.00 81 1012.1
20260906084228 76 54 1.0 5.0 0.00 0.04 0.00 80 1012.2
20260906084136 76 54 2.0 5.0 0.00 0.04 0.00 80 1012.1
20260906084023 76 33 2.0 5.0 0.00 0.04 0.00 79 1012.1
20260906083931 76 20 1.0 5.0 0.00 0.04 0.00 78 1012.0
20260906083822 76 55 0.0 5.0 0.00 0.04 0.00 78 1012.0
20260906083729 76 117 0.0 5.0 0.00 0.04 0.00 79 1011.8
20260906083634 76 142 1.0 5.0 0.00 0.04 0.00 78 1011.8
20260906083520 76 132 2.0 8.0 0.00 0.04 0.00 78 1011.6
20260906083428 76 165 2.0 8.0 0.00 0.04 0.00 77 1011.7
20260906083334 76 174 3.0 8.0 0.00 0.04 0.00 77 1011.6
20260906083309 76 177 3.0 8.0 0.00 0.04 0.00 77 1011.6
20260906083022 76 144 4.0 8.0 0.00 0.04 0.00 77 1011.4
20260906082950 76 142 4.0 8.0 0.00 0.04 0.00 77 1011.4
20260906082836 76 119 4.0 8.0 0.00 0.04 0.00 77 1011.4
20260906082728 76 145 5.0 8.0 0.00 0.04 0.00 77 1011.4
20260906082636 76 142 4.0 7.0 0.00 0.04 0.00 77 1011.4
20260906082523 76 174 3.0 4.0 0.00 0.04 0.00 77 1011.5
20260906082431 76 150 3.0 4.0 0.00 0.04 0.00 78 1011.6
20260906082337 76 182 2.0 5.0 0.00 0.04 0.00 78 1011.5
20260906082225 76 151 2.0 6.0 0.00 0.04 0.00 78 1011.5
20260906082136 76 174 2.0 8.0 0.00 0.04 0.00 77 1011.5
20260906082021 76 215 1.0 8.0 0.00 0.04 0.00 77 1011.5
20260906081928 76 184 2.0 8.0 0.00 0.04 0.00 77 1011.5
20260906081834 76 168 1.0 8.0 0.00 0.04 0.00 78 1011.6
20260906081804 76 129 1.0 8.0 0.00 0.04 0.00 78 1011.6
20260906081520 76 191 3.0 9.0 0.00 0.04 0.00 78 1011.7
20260906081426 76 147 4.0 9.0 0.00 0.04 0.00 77 1011.8
20260906081334 76 120 4.0 9.0 0.00 0.04 0.00 78 1011.9
20260906081221 76 127 4.0 9.0 0.00 0.04 0.00 78 1012.0
20260906081128 76 128 5.0 9.0 0.00 0.04 0.00 78 1012.0
20260906081020 76 115 4.0 9.0 0.00 0.04 0.00 78 1012.0
20260906080928 76 123 3.0 10.0 0.00 0.04 0.00 78 1012.0
20260906080834 76 83 4.0 10.0 0.00 0.04 0.00 78 1012.1
20260906080722 76 102 5.0 10.0 0.00 0.04 0.00 78 1012.1
20260906080630 76 95 5.0 10.0 0.00 0.04 0.00 78 1012.1
20260906080520 76 121 4.0 10.0 0.00 0.04 0.00 79 1012.2
20260906080447 76 117 4.0 10.0 0.00 0.04 0.00 79 1012.2
20260906080415 76 71 4.0 11.0 0.00 0.04 0.00 79 1012.2
20260906080324 76 102 4.0 13.0 0.00 0.04 0.00 79 1012.3
20260906080035 76 67 5.0 15.0 0.00 0.04 0.00 79 1012.4
20260906075924 76 62 3.0 15.0 0.00 0.04 0.00 79 1012.5
20260906075835 76 81 4.0 16.0 0.00 0.04 0.00 79 1012.5
20260906075720 76 82 5.0 16.0 0.00 0.04 0.00 79 1012.6
20260906075627 76 24 7.0 16.0 0.00 0.04 0.00 79 1012.5
20260906075533 76 20 8.0 16.0 0.00 0.04 0.00 79 1012.5
20260906075419 76 80 6.0 16.0 0.00 0.04 0.00 80 1012.5
20260906075330 76 51 8.0 16.0 0.00 0.04 0.00 80 1012.4
20260906075218 76 186 11.0 16.0 0.00 0.04 0.00 79 1012.4
20260906075126 77 59 11.0 16.0 0.00 0.04 0.00 79 1012.4
20260906075033 77 70 10.0 16.0 0.00 0.04 0.00 79 1012.5
20260906074920 77 57 8.0 16.0 0.00 0.04 0.00 79 1012.5
20260906074847 77 69 7.0 15.0 0.00 0.04 0.00 79 1012.6
20260906074801 77 89 8.0 15.0 0.00 0.04 0.00 79 1012.6
20260906074534 77 106 7.0 15.0 0.00 0.04 0.00 78 1012.7
20260906074421 78 38 8.0 15.0 0.00 0.04 0.00 78 1012.8
20260906074330 78 69 8.0 16.0 0.00 0.04 0.00 77 1012.8
20260906074258 78 5 8.0 16.0 0.00 0.04 0.00 77 1012.8
20260906074128 78 84 9.0 19.0 0.00 0.04 0.00 77 1012.9
20260906074055 78 84 10.0 19.0 0.00 0.04 0.00 76 1012.8
20260906073919 78 55 8.0 19.0 0.00 0.04 0.00 76 1012.9
20260906073825 78 5 8.0 21.0 0.00 0.04 0.00 76 1013.0
20260906073733 78 90 9.0 21.0 0.00 0.04 0.00 76 1013.0
20260906073620 78 88 10.0 25.0 0.00 0.04 0.00 75 1013.0
20260906073531 79 63 11.0 25.0 0.00 0.04 0.00 76 1013.0
20260906073440 79 351 11.0 25.0 0.00 0.04 0.00 75 1013.0
20260906073406 79 58 13.0 25.0 0.00 0.04 0.00 76 1013.0
20260906073316 79 43 14.0 25.0 0.00 0.04 0.00 77 1013.0
20260906073029 79 44 14.0 25.0 0.00 0.04 0.00 77 1013.1
20260906072940 79 88 13.0 25.0 0.00 0.04 0.00 77 1013.1
20260906072826 79 355 15.0 25.0 0.00 0.04 0.00 77 1013.1
20260906072733 79 82 16.0 25.0 0.00 0.04 0.00 77 1013.2
20260906072640 79 41 12.0 22.0 0.00 0.04 0.00 77 1013.3
20260906072526 79 28 10.0 22.0 0.00 0.04 0.00 77 1013.4
20260906072452 79 63 11.0 22.0 0.00 0.04 0.00 77 1013.3
20260906072336 79 31 12.0 22.0 0.00 0.04 0.00 77 1013.3
20260906072227 79 30 14.0 22.0 0.00 0.04 0.00 78 1013.3
20260906072154 79 30 13.0 22.0 0.00 0.04 0.00 78 1013.3
20260906072021 79 44 11.0 22.0 0.00 0.04 0.00 78 1013.3
20260906071928 79 71 12.0 20.0 0.00 0.04 0.00 78 1013.4
20260906071835 79 28 13.0 20.0 0.00 0.04 0.00 78 1013.4
20260906071811 79 41 13.0 20.0 0.00 0.04 0.00 79 1013.4
20260906071523 79 5 12.0 20.0 0.00 0.04 0.00 79 1013.4
20260906071450 79 24 13.0 20.0 0.00 0.04 0.00 79 1013.5
20260906071335 79 54 14.0 20.0 0.00 0.04 0.00 79 1013.4
20260906071222 79 30 13.0 18.0 0.00 0.04 0.00 80 1013.4
20260906071127 79 23 11.0 18.0 0.00 0.04 0.00 80 1013.4
20260906071018 79 47 9.0 22.0 0.00 0.04 0.00 80 1013.5
20260906070925 79 31 10.0 25.0 0.00 0.04 0.00 80 1013.5
20260906070853 79 17 11.0 25.0 0.00 0.04 0.00 80 1013.5
20260906070718 79 13 13.0 25.0 0.00 0.04 0.00 80 1013.4
20260906070626 79 28 13.0 25.0 0.00 0.04 0.00 80 1013.5
20260906070553 79 5 11.0 25.0 0.00 0.04 0.00 80 1013.3
20260906070424 79 21 13.0 25.0 0.00 0.04 0.00 79 1013.1
20260906070331 79 33 17.0 25.0 0.00 0.04 0.00 79 1013.2
20260906070302 80 35 16.0 25.0 0.00 0.04 0.00 79 1013.2
20260906070037 80 355 16.0 24.0 0.00 0.04 0.00 79 1013.1
20260906065928 80 346 14.0 21.0 0.00 0.04 0.00 78 1013.2
20260906065837 80 20 11.0 17.0 0.00 0.04 0.00 78 1013.2
20260906065723 80 355 7.0 11.0 0.00 0.04 0.00 78 1013.1
20260906065631 80 350 6.0 9.0 0.00 0.04 0.00 78 1013.0
20260906065518 80 12 5.0 8.0 0.00 0.04 0.00 78 1012.9
20260906065426 80 27 4.0 7.0 0.00 0.04 0.00 78 1012.8
20260906065337 80 47 3.0 7.0 0.00 0.04 0.00 78 1012.7
20260906065223 80 5 2.0 7.0 0.00 0.04 0.00 78 1012.6
20260906065131 80 334 2.0 7.0 0.00 0.04 0.00 78 1012.4
20260906065038 80 306 3.0 7.0 0.00 0.04 0.00 78 1012.5
20260906064925 80 321 4.0 7.0 0.00 0.04 0.00 78 1012.5
20260906064836 80 333 5.0 7.0 0.00 0.04 0.00 78 1012.6
20260906064806 80 20 5.0 9.0 0.00 0.04 0.00 78 1012.6
20260906064519 80 38 4.0 10.0 0.00 0.04 0.00 78 1012.6
20260906064424 80 54 4.0 10.0 0.00 0.04 0.00 78 1012.5
20260906064351 80 23 4.0 10.0 0.00 0.04 0.00 78 1012.4
20260906064222 80 317 3.0 10.0 0.00 0.04 0.00 79 1012.3
20260906064128 80 338 3.0 10.0 0.00 0.04 0.00 79 1012.5
20260906064034 80 69 2.0 10.0 0.00 0.04 0.00 79 1012.6
20260906063942 80 74 4.0 10.0 0.00 0.04 0.00 78 1012.5
20260906063827 80 52 6.0 10.0 0.00 0.04 0.00 78 1012.6
20260906063733 80 48 6.0 10.0 0.00 0.04 0.00 79 1012.5
20260906063645 80 52 5.0 8.0 0.00 0.04 0.00 79 1012.4
20260906063530 80 28 5.0 6.0 0.00 0.04 0.00 79 1012.4
20260906063437 80 32 4.0 6.0 0.00 0.04 0.00 79 1012.4
20260906063343 80 42 3.0 14.0 0.00 0.04 0.00 79 1012.4
20260906063252 80 35 2.0 14.0 0.00 0.04 0.00 79 1012.4
20260906063029 80 47 2.0 14.0 0.00 0.04 0.00 79 1012.5
20260906062936 80 55 2.0 14.0 0.00 0.04 0.00 79 1012.4
20260906062823 80 5 5.0 14.0 0.00 0.04 0.00 79 1012.3
20260906062729 80 5 5.0 14.0 0.00 0.04 0.00 79 1012.3
20260906062637 80 26 5.0 14.0 0.00 0.04 0.00 80 1012.3
20260906062523 80 5 7.0 14.0 0.00 0.04 0.00 80 1012.2
20260906062436 80 9 8.0 14.0 0.00 0.04 0.00 79 1012.2
20260906062323 80 5 7.0 9.0 0.00 0.04 0.00 80 1012.3
20260906062231 80 355 6.0 9.0 0.00 0.04 0.00 81 1012.3
20260906062137 80 17 5.0 9.0 0.00 0.04 0.00 81 1012.3
20260906062023 80 13 5.0 6.0 0.00 0.04 0.00 81 1012.4
20260906061930 80 35 3.0 6.0 0.00 0.04 0.00 81 1012.4
20260906061901 80 36 2.0 5.0 0.00 0.04 0.00 81 1012.4
20260906061831 80 36 0.0 7.0 0.00 0.04 0.00 80 1012.4
20260906061544 81 280 1.0 7.0 0.00 0.04 0.00 81 1012.2
20260906061429 81 280 1.0 7.0 0.00 0.04 0.00 81 1012.2
20260906061336 81 297 2.0 7.0 0.00 0.04 0.00 81 1012.2
20260906061226 81 232 2.0 7.0 0.00 0.04 0.00 81 1012.1
20260906061132 80 268 3.0 7.0 0.00 0.04 0.00 80 1012.1
20260906061018 80 260 3.0 7.0 0.00 0.04 0.00 81 1012.1
20260906060925 80 215 2.0 6.0 0.00 0.04 0.00 80 1012.1
20260906060831 80 231 2.0 7.0 0.00 0.04 0.00 80 1012.1
20260906060722 80 211 3.0 7.0 0.00 0.04 0.00 80 1012.0
20260906060629 80 227 4.0 7.0 0.00 0.04 0.00 80 1012.1
20260906060536 80 215 4.0 7.0 0.00 0.04 0.00 80 1012.1
20260906060424 80 209 4.0 7.0 0.00 0.04 0.00 80 1012.1
20260906060350 80 205 4.0 7.0 0.00 0.04 0.00 80 1012.1
20260906060324 80 180 5.0 7.0 0.00 0.04 0.00 81 1012.1
20260906060056 80 207 5.0 7.0 0.00 0.04 0.00 81 1012.1
20260906055921 80 192 4.0 7.0 0.00 0.04 0.00 81 1012.2
20260906055829 80 196 3.0 7.0 0.00 0.04 0.00 81 1012.1
20260906055756 80 190 4.0 6.0 0.00 0.04 0.00 81 1012.0
20260906055621 80 182 3.0 6.0 0.00 0.04 0.00 81 1012.1
20260906055528 80 184 3.0 8.0 0.00 0.04 0.00 81 1012.1
20260906055420 80 175 3.0 8.0 0.00 0.04 0.00 81 1012.1
20260906055327 80 197 4.0 8.0 0.00 0.04 0.00 81 1012.1
20260906055233 80 174 4.0 8.0 0.00 0.04 0.00 81 1012.0
20260906055120 80 194 4.0 9.0 0.00 0.04 0.00 81 1012.2
20260906055026 80 198 4.0 9.0 0.00 0.04 0.00 81 1012.1
20260906054953 80 178 4.0 9.0 0.00 0.04 0.00 81 1012.1
20260906054822 80 145 4.0 9.0 0.00 0.04 0.00 82 1012.2
20260906054753 80 192 5.0 9.0 0.00 0.04 0.00 82 1012.2
20260906054527 80 199 5.0 9.0 0.00 0.04 0.00 82 1012.3
20260906054434 80 202 6.0 9.0 0.00 0.04 0.04 82 1012.4
20260906054325 79 182 6.0 9.0 0.00 0.04 0.04 82 1012.3
20260906054232 79 204 4.0 7.0 0.00 0.04 0.04 82 1012.3
20260906054138 79 217 3.0 7.0 0.00 0.04 0.04 82 1012.2
20260906054024 79 171 3.0 7.0 0.00 0.04 0.04 83 1012.2
20260906053931 79 161 3.0 7.0 0.00 0.04 0.04 83 1012.2
20260906053823 79 190 3.0 7.0 0.00 0.04 0.04 83 1012.2
20260906053728 79 145 3.0 7.0 0.00 0.04 0.04 83 1012.2
20260906053634 79 167 3.0 8.0 0.00 0.04 0.04 83 1012.2
20260906053521 79 206 3.0 8.0 0.00 0.04 0.04 83 1012.2
20260906053449 79 194 4.0 8.0 0.00 0.04 0.04 83 1012.3
20260906053333 79 178 3.0 8.0 0.00 0.04 0.04 83 1012.2
20260906053307 79 170 3.0 8.0 0.00 0.04 0.04 83 1012.2
20260906053018 79 138 4.0 12.0 0.00 0.04 0.04 83 1012.2
20260906052925 79 133 5.0 12.0 0.00 0.04 0.04 83 1012.2
20260906052830 79 142 6.0 12.0 0.00 0.04 0.04 83 1012.2
20260906052738 79 154 4.0 12.0 0.00 0.04 0.04 83 1012.3
20260906052629 79 125 5.0 12.0 0.00 0.04 0.04 83 1012.3
20260906052538 79 112 6.0 12.0 0.00 0.04 0.04 83 1012.4
20260906052424 79 103 6.0 12.0 0.00 0.04 0.04 83 1012.3
20260906052332 79 42 7.0 12.0 0.00 0.04 0.04 84 1012.3
20260906052240 79 109 8.0 12.0 0.00 0.04 0.04 84 1012.3
20260906052125 79 84 7.0 12.0 0.00 0.04 0.04 84 1012.3
20260906052051 79 96 5.0 11.0 0.00 0.04 0.04 85 1012.3
20260906051941 79 109 3.0 6.0 0.00 0.04 0.04 85 1012.3
20260906051827 79 113 3.0 6.0 0.00 0.04 0.04 85 1012.2
20260906051758 79 111 2.0 4.0 0.00 0.04 0.04 85 1012.2
20260906051532 78 128 1.0 3.0 0.00 0.04 0.04 84 1012.0
20260906051422 78 64 0.0 0.0 0.00 0.04 0.04 84 1012.0
20260906051330 78 64 0.0 0.0 0.00 0.04 0.04 83 1012.0
20260906051257 78 64 0.0 0.0 0.00 0.04 0.04 83 1011.8
20260906051123 79 64 0.0 0.0 0.00 0.04 0.04 83 1011.8
20260906051030 79 64 0.0 0.0 0.00 0.04 0.04 82 1011.8
20260906050936 78 64 0.0 0.0 0.00 0.04 0.04 83 1011.8
20260906050828 79 64 0.0 0.0 0.00 0.04 0.04 83 1011.7
20260906050736 79 64 0.0 0.0 0.00 0.04 0.04 84 1011.7
20260906050642 79 64 0.0 0.0 0.00 0.04 0.04 84 1011.7
20260906050549 79 64 0.0 0.0 0.00 0.04 0.04 84 1011.6
20260906050435 79 64 0.0 0.0 0.00 0.04 0.04 84 1011.6
20260906050323 79 64 0.0 0.0 0.00 0.04 0.04 84 1011.6
20260906050257 79 64 0.0 0.0 0.00 0.04 0.04 84 1011.6
20260906050029 79 64 0.0 0.0 0.00 0.04 0.04 83 1011.6
20260906045937 79 64 0.0 0.0 0.00 0.04 0.04 83 1011.5
20260906045824 79 64 0.0 0.0 0.00 0.04 0.04 84 1011.6
20260906045751 79 64 0.0 0.0 0.00 0.04 0.04 83 1011.6
20260906045619 79 64 0.0 0.0 0.00 0.04 0.04 83 1011.7
20260906045527 79 64 0.0 0.0 0.00 0.04 0.04 83 1011.7
20260906045433 79 64 0.0 0.0 0.00 0.04 0.04 83 1011.6
20260906045321 79 64 0.0 0.0 0.00 0.04 0.04 83 1011.8
20260906045227 79 64 0.0 0.0 0.00 0.04 0.04 83 1011.7
20260906045134 79 64 0.0 0.0 0.00 0.04 0.04 83 1011.8
20260906045046 79 64 0.0 0.0 0.00 0.04 0.04 83 1011.8
20260906044932 79 64 0.0 0.0 0.00 0.04 0.04 82 1011.8
20260906044810 79 64 0.0 0.0 0.00 0.04 0.04 82 1012.0
20260906044523 79 64 0.0 0.0 0.00 0.04 0.04 83 1012.1
20260906044434 79 64 0.0 0.0 0.00 0.04 0.04 83 1012.0
20260906044319 79 64 0.0 0.0 0.00 0.04 0.04 83 1012.1
20260906044228 79 64 0.0 0.0 0.00 0.04 0.04 83 1012.1
20260906044135 79 64 0.0 0.0 0.00 0.04 0.04 83 1012.1
20260906044022 79 64 0.0 0.0 0.00 0.04 0.04 83 1012.0
20260906043933 79 64 0.0 0.0 0.00 0.04 0.04 83 1012.1
20260906043820 79 64 0.0 0.0 0.00 0.04 0.04 83 1012.1
20260906043748 79 64 0.0 0.0 0.00 0.04 0.04 83 1012.1
20260906043655 79 64 0.0 0.0 0.00 0.04 0.04 83 1012.1
20260906043520 79 64 0.0 0.0 0.00 0.04 0.04 83 1012.1
20260906043427 79 64 0.0 0.0 0.00 0.04 0.04 83 1012.2
20260906043335 79 64 0.0 0.0 0.00 0.04 0.04 83 1012.2
20260906043309 79 64 0.0 0.0 0.00 0.04 0.04 82 1012.2
20260906043023 79 64 0.0 0.0 0.00 0.04 0.04 83 1012.2
20260906042930 79 64 0.0 0.0 0.00 0.04 0.04 83 1012.3
20260906042837 79 64 0.0 0.0 0.00 0.04 0.04 83 1012.2
20260906042750 79 64 0.0 0.0 0.00 0.04 0.04 83 1012.2
20260906042635 79 64 0.0 0.0 0.00 0.04 0.04 83 1012.2
20260906042521 79 64 0.0 0.0 0.00 0.04 0.04 82 1012.2
20260906042429 79 64 0.0 0.0 0.00 0.04 0.04 82 1012.1
20260906042337 79 64 0.0 0.0 0.00 0.04 0.04 82 1012.2
20260906042222 79 64 0.0 0.0 0.00 0.04 0.04 82 1012.2
20260906042134 79 64 0.0 0.0 0.00 0.04 0.04 82 1012.3
20260906042022 79 64 0.0 0.0 0.00 0.04 0.04 83 1012.2
20260906041928 79 64 0.0 0.0 0.00 0.04 0.04 83 1012.3
20260906041811 79 64 0.0 0.0 0.00 0.04 0.04 83 1012.3
20260906041524 79 64 0.0 0.0 0.00 0.04 0.04 83 1012.3
20260906041431 79 64 0.0 0.0 0.00 0.04 0.04 83 1012.2
20260906041319 79 64 0.0 0.0 0.00 0.04 0.04 83 1012.2
20260906041245 79 64 0.0 0.0 0.00 0.04 0.04 83 1012.2
20260906041132 79 64 0.0 0.0 0.00 0.04 0.04 82 1012.3
20260906041045 79 64 0.0 0.0 0.00 0.04 0.04 82 1012.2
20260906040931 79 64 0.0 0.0 0.00 0.04 0.04 82 1012.2
20260906040819 79 64 0.0 0.0 0.00 0.04 0.04 82 1012.2
20260906040725 79 64 0.0 0.0 0.00 0.04 0.04 82 1012.1
20260906040632 79 64 0.0 0.0 0.00 0.04 0.04 82 1012.2
20260906040519 79 64 0.0 0.0 0.00 0.04 0.04 82 1012.2
20260906040432 79 64 0.0 0.0 0.00 0.04 0.04 82 1012.1
20260906040308 79 64 0.0 0.0 0.00 0.04 0.04 82 1012.2
20260906040021 80 64 0.0 0.0 0.00 0.04 0.04 82 1012.2
20260906035928 80 64 0.0 1.0 0.00 0.04 0.04 82 1012.2
20260906035819 80 64 0.0 2.0 0.00 0.04 0.04 82 1012.1
20260906035746 80 64 0.0 2.0 0.00 0.04 0.04 82 1012.1
20260906035632 80 64 0.0 2.0 0.00 0.04 0.04 82 1012.1
20260906035559 80 64 0.0 2.0 0.00 0.04 0.04 82 1012.1
20260906035424 80 64 0.0 2.0 0.00 0.04 0.04 82 1012.1
20260906035330 80 64 0.0 2.0 0.00 0.04 0.04 82 1012.1
20260906035221 80 64 0.0 2.0 0.00 0.04 0.04 82 1012.2
20260906035129 80 64 1.0 2.0 0.00 0.04 0.04 81 1012.2
20260906035032 80 64 0.0 2.0 0.00 0.04 0.04 82 1012.3
20260906034920 80 64 0.0 1.0 0.00 0.04 0.04 83 1012.3
20260906034803 80 145 0.0 1.0 0.00 0.04 0.04 83 1012.2
20260906034537 80 145 0.0 0.0 0.00 0.04 0.04 83 1012.2
20260906034422 80 145 0.0 0.0 0.00 0.04 0.04 83 1012.2
20260906034331 80 145 0.0 0.0 0.00 0.04 0.04 83 1012.2
20260906034238 80 145 0.0 1.0 0.00 0.04 0.04 83 1012.1
20260906034128 80 145 0.0 2.0 0.00 0.04 0.04 83 1012.2
20260906034035 80 145 0.0 2.0 0.00 0.04 0.04 83 1012.1
20260906033922 80 145 0.0 2.0 0.00 0.04 0.04 83 1012.2
20260906033828 80 145 0.0 2.0 0.00 0.04 0.04 83 1012.2
20260906033734 80 145 0.0 2.0 0.00 0.04 0.04 84 1012.2
20260906033640 80 145 0.0 2.0 0.00 0.04 0.04 84 1012.1
20260906033530 80 145 0.0 2.0 0.00 0.04 0.04 84 1012.2
20260906033436 80 145 0.0 2.0 0.00 0.04 0.04 84 1012.1
20260906033322 80 145 0.0 2.0 0.00 0.04 0.04 82 1012.1
20260906033252 80 145 0.0 2.0 0.00 0.04 0.04 82 1012.1
20260906033030 80 360 0.0 0.0 0.00 0.04 0.04 81 1012.2
20260906032937 80 360 0.0 0.0 0.00 0.04 0.04 81 1012.2
20260906032825 80 360 0.0 0.0 0.00 0.04 0.04 81 1012.1
20260906032731 80 360 0.0 0.0 0.00 0.04 0.04 81 1012.1
20260906032618 80 360 0.0 0.0 0.00 0.04 0.04 80 1012.1
20260906032526 80 360 0.0 0.0 0.00 0.04 0.04 80 1012.0
20260906032456 80 360 0.0 0.0 0.00 0.04 0.04 81 1012.1
20260906032321 80 360 0.0 0.0 0.00 0.04 0.04 81 1012.0
20260906032230 80 360 0.0 0.0 0.00 0.04 0.04 81 1011.9
20260906032159 80 360 0.0 0.0 0.00 0.04 0.04 81 1012.0
20260906032024 80 360 0.0 0.0 0.00 0.04 0.04 81 1011.9
20260906031932 80 360 0.0 0.0 0.00 0.04 0.04 80 1012.0
20260906031824 80 360 0.0 0.0 0.00 0.04 0.04 80 1012.0
20260906031753 80 360 0.0 0.0 0.00 0.04 0.04 80 1012.0
20260906031547 80 360 0.0 0.0 0.00 0.04 0.04 80 1012.0
20260906031452 80 360 0.0 0.0 0.00 0.04 0.04 80 1012.0
20260906031318 80 360 0.0 0.0 0.00 0.04 0.04 80 1012.0
20260906031229 80 360 0.0 0.0 0.00 0.04 0.04 80 1012.0
20260906031137 80 360 0.0 0.0 0.00 0.04 0.04 80 1012.0
20260906031024 80 360 0.0 0.0 0.00 0.04 0.04 80 1012.0
20260906030951 80 360 0.0 0.0 0.00 0.04 0.04 80 1012.0
20260906030836 80 360 0.0 0.0 0.00 0.04 0.04 81 1012.0
20260906030724 80 360 0.0 0.0 0.00 0.04 0.04 81 1012.0
20260906030634 80 360 0.0 0.0 0.00 0.04 0.04 81 1012.0
20260906030541 80 360 0.0 0.0 0.00 0.04 0.04 80 1012.0
20260906030448 80 360 0.0 0.0 0.00 0.04 0.04 80 1012.0
20260906030415 80 360 0.0 0.0 0.00 0.04 0.04 80 1012.0
20260906030323 80 360 0.0 0.0 0.00 0.04 0.04 80 1011.9
20260906030035 80 360 0.0 0.0 0.00 0.04 0.04 80 1012.1
20260906025926 80 360 0.0 0.0 0.00 0.04 0.04 80 1012.1
20260906025832 80 360 0.0 0.0 0.00 0.04 0.04 81 1012.0
20260906025719 80 360 0.0 0.0 0.00 0.04 0.04 81 1012.1
20260906025626 80 360 0.0 0.0 0.00 0.04 0.04 81 1012.1
20260906025533 80 360 0.0 0.0 0.00 0.04 0.04 81 1012.2
20260906025424 80 360 0.0 0.0 0.00 0.04 0.04 81 1012.1
20260906025353 80 360 0.0 0.0 0.00 0.04 0.04 80 1012.1
20260906025219 80 360 0.0 0.0 0.00 0.04 0.04 80 1012.1
20260906025126 80 360 0.0 0.0 0.00 0.04 0.04 80 1012.1
20260906025054 80 360 0.0 0.0 0.00 0.04 0.04 81 1012.1
20260906024919 80 360 0.0 1.0 0.00 0.04 0.04 81 1012.0
20260906024847 80 360 0.0 1.0 0.00 0.04 0.04 81 1012.0
20260906024822 80 360 0.0 2.0 0.00 0.04 0.04 81 1012.0
20260906024535 80 360 0.0 2.0 0.00 0.04 0.04 81 1012.0
20260906024442 80 360 0.0 2.0 0.00 0.04 0.04 81 1012.0
20260906024328 80 360 0.0 2.0 0.00 0.04 0.04 81 1012.0
20260906024235 80 360 0.0 2.0 0.00 0.04 0.04 81 1012.0
20260906024126 80 360 1.0 2.0 0.00 0.04 0.04 80 1011.9
20260906024035 80 360 1.0 2.0 0.00 0.04 0.04 80 1011.8
20260906023922 80 360 1.0 2.0 0.00 0.04 0.04 80 1011.8
20260906023849 80 360 1.0 2.0 0.00 0.04 0.04 80 1011.8
20260906023733 80 360 1.0 2.0 0.00 0.04 0.04 80 1011.7
20260906023620 80 360 1.0 2.0 0.00 0.04 0.04 80 1011.7
20260906023531 80 360 1.0 2.0 0.00 0.04 0.04 80 1011.6
20260906023438 80 360 1.0 3.0 0.00 0.04 0.04 80 1011.7
20260906023345 80 360 0.0 3.0 0.00 0.04 0.04 80 1011.7
20260906023255 80 360 0.0 3.0 0.00 0.04 0.04 80 1011.7
20260906023028 80 360 0.0 3.0 0.00 0.04 0.04 80 1011.7
20260906022920 80 360 0.0 3.0 0.00 0.04 0.04 80 1011.6
20260906022847 80 360 0.0 3.0 0.00 0.04 0.04 80 1011.6
20260906022734 80 360 1.0 3.0 0.00 0.04 0.04 79 1011.7
20260906022621 80 360 1.0 3.0 0.00 0.04 0.04 79 1011.6
20260906022527 80 360 0.0 3.0 0.00 0.04 0.04 78 1011.5
20260906022419 80 360 1.0 3.0 0.00 0.04 0.04 79 1011.4
20260906022326 80 360 1.0 3.0 0.00 0.04 0.04 79 1011.5
20260906022233 80 360 2.0 3.0 0.00 0.04 0.04 79 1011.5
20260906022141 80 360 2.0 3.0 0.00 0.04 0.04 79 1011.4
20260906022026 80 360 2.0 3.0 0.00 0.04 0.04 79 1011.4
20260906021933 80 360 2.0 3.0 0.00 0.04 0.04 79 1011.4
20260906021823 80 360 1.0 3.0 0.00 0.04 0.04 79 1011.4
20260906021754 80 360 0.0 2.0 0.00 0.04 0.04 79 1011.4
20260906021526 80 360 0.0 0.0 0.00 0.04 0.04 79 1011.4
20260906021433 80 360 0.0 0.0 0.00 0.04 0.04 79 1011.3
20260906021321 80 360 0.0 0.0 0.00 0.04 0.04 79 1011.3
20260906021250 80 360 0.0 1.0 0.00 0.04 0.04 79 1011.3
20260906021137 80 360 0.0 2.0 0.00 0.04 0.04 79 1011.4
20260906021043 80 360 0.0 2.0 0.00 0.04 0.04 79 1011.4
20260906020930 80 360 0.0 2.0 0.00 0.04 0.04 79 1011.3
20260906020837 80 360 0.0 2.0 0.00 0.04 0.04 79 1011.3
20260906020725 80 360 0.0 2.0 0.00 0.04 0.04 79 1011.3
20260906020634 80 360 0.0 2.0 0.00 0.04 0.04 79 1011.3
20260906020522 80 360 0.0 2.0 0.00 0.04 0.04 79 1011.3
20260906020450 80 360 0.0 2.0 0.00 0.04 0.04 79 1011.3
20260906020337 80 360 0.0 2.0 0.00 0.04 0.04 79 1011.3
20260906020307 80 360 0.0 2.0 0.00 0.04 0.04 79 1011.3
20260906020024 80 360 0.0 3.0 0.00 0.04 0.04 79 1011.2
20260906015951 80 360 1.0 3.0 0.00 0.04 0.04 79 1011.2
20260906015837 80 360 1.0 3.0 0.00 0.04 0.04 79 1011.2
20260906015723 80 360 1.0 3.0 0.00 0.04 0.04 78 1011.2
20260906015630 80 360 1.0 3.0 0.00 0.04 0.04 77 1011.2
20260906015518 80 360 2.0 3.0 0.00 0.04 0.04 78 1011.2
20260906015428 80 360 2.0 3.0 0.00 0.04 0.04 77 1011.2
20260906015335 80 360 1.0 3.0 0.00 0.04 0.04 78 1011.2
20260906015243 80 360 0.0 3.0 0.00 0.04 0.04 78 1011.1
20260906015129 80 360 1.0 3.0 0.00 0.04 0.04 78 1011.0
20260906015037 80 360 1.0 3.0 0.00 0.04 0.04 79 1011.1
20260906014944 80 360 1.0 3.0 0.00 0.04 0.04 79 1011.1
20260906014910 80 360 1.0 3.0 0.00 0.04 0.04 78 1011.1
20260906014824 80 360 2.0 3.0 0.00 0.04 0.04 79 1011.1
20260906014537 80 360 1.0 3.0 0.00 0.04 0.04 78 1011.1
20260906014424 80 360 0.0 2.0 0.00 0.04 0.04 78 1011.1
20260906014350 80 360 0.0 0.0 0.00 0.04 0.04 78 1011.1
20260906014220 80 360 0.0 1.0 0.00 0.04 0.04 78 1011.0
20260906014127 80 360 0.0 1.0 0.00 0.04 0.04 78 1011.0
20260906014034 80 360 0.0 1.0 0.00 0.04 0.04 78 1011.0
20260906013941 80 360 0.0 1.0 0.00 0.04 0.04 78 1011.0
20260906013826 80 360 0.0 1.0 0.00 0.04 0.04 78 1011.0
20260906013753 80 360 0.0 1.0 0.00 0.04 0.04 77 1010.9
20260906013639 80 360 0.0 1.0 0.00 0.04 0.04 77 1010.8
20260906013528 80 360 0.0 1.0 0.00 0.04 0.04 77 1010.9
20260906013435 80 360 0.0 1.0 0.00 0.04 0.04 78 1010.8
20260906013402 80 360 0.0 1.0 0.00 0.04 0.04 79 1010.8
20260906013311 80 360 0.0 2.0 0.00 0.04 0.04 79 1010.8
20260906013024 80 360 0.0 2.0 0.00 0.04 0.04 78 1010.8
20260906012935 80 360 0.0 2.0 0.00 0.04 0.04 78 1010.7
20260906012843 80 360 0.0 4.0 0.00 0.04 0.04 78 1010.8
20260906012728 80 360 0.0 4.0 0.00 0.04 0.04 78 1010.8
20260906012635 80 360 0.0 4.0 0.00 0.04 0.04 78 1010.8
20260906012521 80 360 1.0 4.0 0.00 0.04 0.04 79 1010.8
20260906012428 80 360 1.0 4.0 0.00 0.04 0.04 79 1010.8
20260906012339 80 360 1.0 4.0 0.00 0.04 0.04 78 1011.0
20260906012224 80 360 1.0 4.0 0.00 0.04 0.04 78 1010.9
20260906012131 80 360 2.0 4.0 0.00 0.04 0.04 79 1010.8
20260906012018 80 360 2.0 4.0 0.00 0.04 0.04 79 1010.8
20260906011926 80 360 2.0 4.0 0.00 0.04 0.04 78 1010.8
20260906011853 80 360 1.0 2.0 0.00 0.04 0.04 78 1010.8
20260906011806 80 360 1.0 2.0 0.00 0.04 0.04 78 1010.8
20260906011518 80 360 1.0 3.0 0.00 0.04 0.04 78 1010.8
20260906011425 80 360 0.0 3.0 0.00 0.04 0.04 78 1010.8
20260906011332 80 360 0.0 3.0 0.00 0.04 0.04 78 1010.8
20260906011219 80 360 1.0 3.0 0.00 0.04 0.04 78 1010.7
20260906011130 80 360 1.0 3.0 0.00 0.04 0.04 78 1010.8
20260906011018 80 360 1.0 4.0 0.00 0.04 0.04 78 1010.8
20260906010925 80 360 1.0 4.0 0.00 0.04 0.04 78 1010.7
20260906010831 80 360 1.0 4.0 0.00 0.04 0.04 77 1010.7
20260906010737 80 360 1.0 4.0 0.00 0.04 0.04 77 1010.7
20260906010627 80 360 1.0 4.0 0.00 0.04 0.04 77 1010.7
20260906010555 80 360 2.0 4.0 0.00 0.04 0.04 78 1010.7
20260906010421 80 360 2.0 4.0 0.00 0.04 0.04 78 1010.7
20260906010328 81 360 2.0 4.0 0.00 0.04 0.04 78 1010.6
20260906010259 80 360 3.0 4.0 0.00 0.04 0.04 78 1010.6
20260906010036 81 360 3.0 4.0 0.00 0.04 0.04 78 1010.6
20260906005922 81 360 2.0 3.0 0.00 0.04 0.04 77 1010.6
20260906005848 81 28 2.0 4.0 0.00 0.04 0.04 77 1010.5
20260906005734 80 42 2.0 4.0 0.00 0.04 0.04 77 1010.6
20260906005619 81 42 2.0 4.0 0.00 0.04 0.04 77 1010.7
20260906005528 81 61 2.0 4.0 0.00 0.04 0.04 76 1010.6
20260906005420 81 55 2.0 4.0 0.00 0.04 0.04 77 1010.5
20260906005327 81 53 2.0 4.0 0.00 0.04 0.04 77 1010.5
20260906005232 81 57 2.0 4.0 0.00 0.04 0.04 77 1010.5
20260906005120 81 42 2.0 4.0 0.00 0.04 0.04 77 1010.4
20260906005047 81 42 2.0 4.0 0.00 0.04 0.04 77 1010.4
20260906004953 81 42 2.0 4.0 0.00 0.04 0.04 77 1010.4
20260906004822 81 42 3.0 4.0 0.00 0.04 0.04 77 1010.5
20260906004752 81 42 3.0 4.0 0.00 0.04 0.04 77 1010.5
20260906004525 81 36 3.0 4.0 0.00 0.04 0.04 77 1010.4
20260906004433 81 37 3.0 4.0 0.00 0.04 0.04 77 1010.4
20260906004321 81 37 2.0 4.0 0.00 0.04 0.04 77 1010.4
20260906004253 81 37 1.0 4.0 0.00 0.04 0.04 76 1010.5
20260906004119 81 69 0.0 4.0 0.00 0.04 0.04 76 1010.5
20260906004027 81 87 0.0 4.0 0.00 0.04 0.04 76 1010.6
20260906003935 81 87 0.0 4.0 0.00 0.04 0.04 77 1010.4
20260906003823 81 87 1.0 4.0 0.00 0.04 0.04 77 1010.5
20260906003732 81 121 1.0 4.0 0.00 0.04 0.04 77 1010.5
20260906003620 81 98 3.0 4.0 0.00 0.04 0.04 77 1010.5
20260906003527 81 119 2.0 5.0 0.00 0.04 0.04 77 1010.5
20260906003454 81 117 2.0 5.0 0.00 0.04 0.04 76 1010.5
20260906003422 81 116 1.0 2.0 0.00 0.04 0.04 76 1010.5
20260906003331 81 116 0.0 3.0 0.00 0.04 0.04 74 1010.5
20260906003044 81 116 0.0 3.0 0.01 0.04 0.04 75 1010.5
20260906002934 81 116 0.0 3.0 0.03 0.04 0.04 75 1010.5
20260906002820 81 116 0.0 3.0 0.04 0.04 0.04 75 1010.6
20260906002727 81 219 0.0 3.0 0.04 0.04 0.04 76 1010.5
20260906002635 81 219 1.0 4.0 0.04 0.04 0.04 77 1010.5
20260906002521 81 219 1.0 4.0 0.04 0.04 0.04 75 1010.7
20260906002449 81 208 1.0 4.0 0.04 0.04 0.04 76 1010.6
20260906002319 81 128 0.0 4.0 0.04 0.04 0.04 76 1010.6
20260906002227 81 128 0.0 4.0 0.04 0.04 0.04 75 1010.7
20260906002133 81 128 0.0 8.0 0.04 0.04 0.04 75 1010.6
20260906002019 81 173 0.0 8.0 0.04 0.04 0.04 75 1010.7
20260906001926 81 173 1.0 8.0 0.04 0.04 0.04 75 1010.7
20260906001833 81 158 1.0 8.0 0.04 0.04 0.04 75 1010.8
20260906001807 81 149 1.0 8.0 0.04 0.04 0.04 75 1010.8
20260906001521 81 190 2.0 8.0 0.04 0.04 0.04 75 1010.8
20260906001428 81 193 3.0 14.0 0.04 0.04 0.04 75 1010.8
20260906001334 81 186 4.0 16.0 0.04 0.04 0.04 76 1010.9
20260906001225 81 197 4.0 16.0 0.04 0.04 0.04 75 1010.9
20260906001132 81 180 5.0 16.0 0.04 0.04 0.04 76 1010.9
20260906001018 81 152 6.0 16.0 0.04 0.04 0.04 76 1011.1
20260906000925 81 121 6.0 16.0 0.04 0.04 0.04 75 1011.1
20260906000831 81 113 5.0 16.0 0.04 0.04 0.04 75 1011.0
20260906000758 81 123 5.0 16.0 0.04 0.04 0.04 75 1011.1
20260906000629 81 131 7.0 16.0 0.04 0.04 0.04 74 1011.1
20260906000518 81 171 9.0 16.0 0.04 0.04 0.04 75 1011.2
20260906000425 81 156 8.0 15.0 0.04 0.04 0.04 75 1011.2
20260906000330 81 181 6.0 10.0 0.04 0.04 0.04 75 1011.3
20260906000303 81 142 6.0 10.0 0.04 0.04 0.04 76 1011.3
20260906000019 81 134 7.0 14.0 0.04 0.04 0.04 76 1011.2
20260905235926 81 194 6.0 14.0 0.04 0.04 0.04 76 1011.3
20260905235834 81 170 6.0 14.0 0.04 0.04 0.04 77 1011.3
20260905235742 81 172 6.0 14.0 0.04 0.04 0.04 77 1011.3
20260905235628 81 171 7.0 14.0 0.04 0.04 0.04 77 1011.4
20260905235534 81 135 7.0 14.0 0.04 0.04 0.04 79 1011.2
20260905235423 81 74 6.0 15.0 0.04 0.04 0.04 79 1011.3
20260905235331 81 116 6.0 15.0 0.04 0.04 0.04 79 1011.4
20260905235218 81 149 9.0 15.0 0.04 0.04 0.04 77 1011.4
20260905235125 81 130 8.0 15.0 0.04 0.04 0.04 79 1011.4
20260905235031 80 128 7.0 18.0 0.04 0.04 0.04 80 1011.4
20260905234923 80 130 6.0 23.0 0.04 0.04 0.04 80 1011.3
20260905234830 80 115 8.0 23.0 0.04 0.04 0.04 81 1011.3
20260905234800 80 53 10.0 27.0 0.04 0.04 0.04 81 1011.3
20260905234534 80 109 11.0 27.0 0.04 0.04 0.04 80 1011.3
20260905234425 80 104 11.0 27.0 0.04 0.04 0.04 81 1011.3
20260905234331 80 146 12.0 27.0 0.04 0.04 0.04 80 1011.2
20260905234219 80 115 15.0 27.0 0.04 0.04 0.04 80 1011.2
20260905234126 81 111 16.0 27.0 0.04 0.04 0.04 80 1011.2
20260905234033 81 118 18.0 27.0 0.04 0.04 0.04 80 1011.3
20260905233921 81 132 20.0 27.0 0.04 0.04 0.04 79 1011.3
20260905233853 82 113 19.0 27.0 0.04 0.04 0.04 79 1011.3
20260905233719 83 126 17.0 27.0 0.04 0.04 0.04 78 1011.4
20260905233626 83 122 16.0 27.0 0.04 0.04 0.04 78 1011.5
20260905233532 84 126 16.0 27.0 0.04 0.04 0.04 77 1011.5
20260905233419 85 183 18.0 27.0 0.04 0.04 0.04 75 1011.5
20260905233326 86 128 19.0 27.0 0.04 0.04 0.04 68 1011.3
20260905233301 87 136 18.0 27.0 0.04 0.04 0.04 68 1011.3
20260905233034 90 103 17.0 25.0 0.04 0.04 0.04 65 1010.9
20260905232942 92 90 16.0 25.0 0.04 0.04 0.04 64 1010.8
20260905232829 93 142 17.0 25.0 0.04 0.04 0.04 64 1010.8
20260905232718 95 86 18.0 26.0 0.03 0.03 0.03 61 1010.7
20260905232645 96 148 14.0 22.0 0.03 0.03 0.03 60 1010.7
20260905232530 97 123 8.0 18.0 0.00 0.00 0.00 59 1010.7
20260905232438 97 90 5.0 8.0 0.00 0.00 0.00 57 1010.5
20260905232326 97 44 5.0 7.0 0.00 0.00 0.00 56 1010.4
20260905232253 97 32 5.0 7.0 0.00 0.00 0.00 55 1010.3
20260905232119 97 42 4.0 5.0 0.00 0.00 0.00 54 1010.2
20260905232030 97 41 3.0 5.0 0.00 0.00 0.00 53 1010.3
20260905231918 97 31 2.0 4.0 0.00 0.00 0.00 54 1010.1
20260905231825 97 348 2.0 4.0 0.00 0.00 0.00 54 1010.2
20260905231753 97 331 2.0 4.0 0.00 0.00 0.00 55 1010.2
20260905231529 97 333 2.0 4.0 0.00 0.00 0.00 55 1010.2
20260905231437 97 351 3.0 4.0 0.00 0.00 0.00 55 1010.2
20260905231324 97 12 3.0 4.0 0.00 0.00 0.00 53 1010.1
20260905231233 97 5 2.0 3.0 0.00 0.00 0.00 53 1010.1
20260905231121 97 5 1.0 3.0 0.00 0.00 0.00 52 1010.2
20260905231029 97 5 1.0 3.0 0.00 0.00 0.00 52 1010.2
20260905230921 97 5 1.0 3.0 0.00 0.00 0.00 52 1010.1
20260905230827 97 5 2.0 3.0 0.00 0.00 0.00 52 1010.1
20260905230735 97 5 2.0 3.0 0.00 0.00 0.00 52 1010.1
20260905230643 97 5 2.0 3.0 0.00 0.00 0.00 52 1010.2
20260905230528 97 5 2.0 3.0 0.00 0.00 0.00 52 1010.1
20260905230418 97 360 2.0 3.0 0.00 0.00 0.00 52 1010.2
20260905230324 97 360 2.0 3.0 0.00 0.00 0.00 51 1010.1
20260905230255 97 10 2.0 3.0 0.00 0.00 0.00 51 1010.1
20260905230048 98 10 2.0 3.0 0.00 0.00 0.00 51 1010.1
20260905225933 98 10 2.0 3.0 0.00 0.00 0.00 51 1010.0
20260905225823 98 10 2.0 4.0 0.00 0.00 0.00 51 1010.0
20260905225731 98 10 2.0 4.0 0.00 0.00 0.00 51 1010.1
20260905225637 98 360 2.0 4.0 0.00 0.00 0.00 51 1010.1
20260905225523 98 360 2.0 4.0 0.00 0.00 0.00 51 1010.1
20260905225429 98 360 2.0 4.0 0.00 0.00 0.00 50 1010.1
20260905225334 98 360 3.0 4.0 0.00 0.00 0.00 50 1010.1
20260905225227 99 5 3.0 4.0 0.00 0.00 0.00 51 1010.1
20260905225133 99 5 2.0 5.0 0.00 0.00 0.00 50 1010.1
20260905225020 99 5 3.0 5.0 0.00 0.00 0.00 50 1010.1
20260905224929 99 5 3.0 5.0 0.00 0.00 0.00 50 1010.0
20260905224809 99 11 3.0 5.0 0.00 0.00 0.00 51 1010.1
20260905224523 99 11 3.0 5.0 0.00 0.00 0.00 50 1010.0
20260905224452 99 355 3.0 5.0 0.00 0.00 0.00 49 1010.1
20260905224357 99 351 3.0 5.0 0.00 0.00 0.00 49 1010.1
20260905224222 99 22 3.0 5.0 0.00 0.00 0.00 49 1010.1
20260905224130 99 5 3.0 5.0 0.00 0.00 0.00 48 1010.0
20260905224020 99 43 2.0 5.0 0.00 0.00 0.00 49 1010.0
20260905223928 100 29 2.0 5.0 0.00 0.00 0.00 48 1010.0
20260905223834 100 34 2.0 5.0 0.00 0.00 0.00 48 1010.1
20260905223741 100 47 3.0 5.0 0.00 0.00 0.00 49 1010.0
20260905223628 100 19 3.0 5.0 0.00 0.00 0.00 48 1010.1
20260905223555 100 42 3.0 5.0 0.00 0.00 0.00 49 1010.1
20260905223420 100 24 2.0 5.0 0.00 0.00 0.00 48 1010.1
20260905223303 100 9 2.0 5.0 0.00 0.00 0.00 48 1010.1
20260905223056 100 5 3.0 5.0 0.00 0.00 0.00 48 1010.2
20260905222922 100 24 4.0 5.0 0.00 0.00 0.00 48 1010.1
20260905222830 100 29 3.0 5.0 0.00 0.00 0.00 48 1010.2
20260905222721 100 40 2.0 5.0 0.00 0.00 0.00 47 1010.1
20260905222648 100 78 3.0 5.0 0.00 0.00 0.00 47 1010.2
20260905222554 100 41 3.0 5.0 0.00 0.00 0.00 46 1010.0
20260905222420 100 59 3.0 5.0 0.00 0.00 0.00 46 1010.1
20260905222349 100 57 2.0 4.0 0.00 0.00 0.00 46 1010.2
20260905222234 100 47 2.0 4.0 0.00 0.00 0.00 47 1010.1
20260905222125 100 89 1.0 4.0 0.00 0.00 0.00 46 1010.1
20260905222031 100 34 1.0 3.0 0.00 0.00 0.00 46 1010.1
20260905221918 100 360 2.0 5.0 0.00 0.00 0.00 47 1010.1
20260905221845 101 360 2.0 5.0 0.00 0.00 0.00 46 1010.1
20260905221817 101 360 1.0 5.0 0.00 0.00 0.00 46 1010.1
20260905221533 101 325 1.0 5.0 0.00 0.00 0.00 46 1010.1
20260905221420 101 325 1.0 5.0 0.00 0.00 0.00 46 1010.1
20260905221346 101 30 2.0 5.0 0.00 0.00 0.00 47 1010.2
20260905221232 101 38 2.0 8.0 0.00 0.00 0.00 47 1010.2
20260905221140 101 20 3.0 9.0 0.00 0.00 0.00 47 1010.2
20260905221027 101 15 3.0 9.0 0.00 0.00 0.00 47 1010.2
20260905220919 101 348 2.0 9.0 0.00 0.00 0.00 46 1010.2
20260905220826 100 355 2.0 9.0 0.00 0.00 0.00 47 1010.3
20260905220732 100 355 3.0 9.0 0.00 0.00 0.00 47 1010.2
20260905220639 100 9 3.0 9.0 0.00 0.00 0.00 47 1010.2
20260905220525 100 11 3.0 9.0 0.00 0.00 0.00 47 1010.2
20260905220432 100 9 5.0 9.0 0.00 0.00 0.00 48 1010.2
20260905220339 101 5 5.0 9.0 0.00 0.00 0.00 48 1010.3
20260905220253 100 346 4.0 8.0 0.00 0.00 0.00 48 1010.3
20260905220026 100 53 3.0 9.0 0.00 0.00 0.00 47 1010.2
20260905215933 100 44 4.0 10.0 0.00 0.00 0.00 47 1010.2
20260905215820 100 360 4.0 10.0 0.00 0.00 0.00 47 1010.3
20260905215732 100 28 4.0 10.0 0.00 0.00 0.00 47 1010.2
20260905215620 100 49 4.0 10.0 0.00 0.00 0.00 47 1010.3
20260905215548 100 40 5.0 10.0 0.00 0.00 0.00 47 1010.3
20260905215453 100 11 5.0 10.0 0.00 0.00 0.00 48 1010.3
20260905215318 100 44 6.0 10.0 0.00 0.00 0.00 48 1010.3
20260905215224 100 23 6.0 10.0 0.00 0.00 0.00 47 1010.2
20260905215131 100 41 5.0 10.0 0.00 0.00 0.00 46 1010.3
20260905215022 101 61 4.0 8.0 0.00 0.00 0.00 46 1010.3
20260905214929 101 42 4.0 8.0 0.00 0.00 0.00 46 1010.3
20260905214836 101 65 4.0 7.0 0.00 0.00 0.00 46 1010.3
20260905214806 101 43 4.0 7.0 0.00 0.00 0.00 46 1010.3
20260905214523 101 50 4.0 9.0 0.00 0.00 0.00 48 1010.4
20260905214431 101 26 3.0 9.0 0.00 0.00 0.00 47 1010.3
20260905214318 101 67 3.0 9.0 0.00 0.00 0.00 47 1010.3
20260905214225 101 44 3.0 9.0 0.00 0.00 0.00 47 1010.3
20260905214132 101 54 3.0 9.0 0.00 0.00 0.00 46 1010.2
20260905214018 101 30 4.0 10.0 0.00 0.00 0.00 46 1010.3
20260905213949 101 39 5.0 10.0 0.00 0.00 0.00 46 1010.4
20260905213835 101 53 4.0 10.0 0.00 0.00 0.00 48 1010.2
20260905213722 101 36 1.0 10.0 0.00 0.00 0.00 46 1010.3
20260905213650 101 71 1.0 10.0 0.00 0.00 0.00 49 1010.3
20260905213536 101 355 2.0 10.0 0.00 0.00 0.00 46 1010.4
20260905213443 101 350 3.0 10.0 0.00 0.00 0.00 45 1010.3
20260905213329 101 12 3.0 5.0 0.00 0.00 0.00 45 1010.4
20260905213304 101 5 2.0 5.0 0.00 0.00 0.00 46 1010.4
20260905213018 101 144 1.0 5.0 0.00 0.00 0.00 45 1010.3
20260905212946 101 84 1.0 5.0 0.00 0.00 0.00 45 1010.3
20260905212853 101 290 1.0 5.0 0.00 0.00 0.00 44 1010.3
20260905212719 101 290 2.0 8.0 0.00 0.00 0.00 45 1010.3
20260905212630 101 282 3.0 9.0 0.00 0.00 0.00 45 1010.3
20260905212557 101 309 3.0 9.0 0.00 0.00 0.00 45 1010.4
20260905212422 101 10 3.0 9.0 0.00 0.00 0.00 46 1010.3
20260905212330 101 351 4.0 9.0 0.00 0.00 0.00 45 1010.2
20260905212237 101 32 4.0 9.0 0.00 0.00 0.00 45 1010.4
20260905212125 101 5 4.0 9.0 0.00 0.00 0.00 46 1010.3
20260905212055 101 19 4.0 9.0 0.00 0.00 0.00 46 1010.2
20260905211920 101 22 4.0 9.0 0.00 0.00 0.00 46 1010.4
20260905211848 101 360 5.0 9.0 0.00 0.00 0.00 45 1010.3
20260905211818 101 355 4.0 9.0 0.00 0.00 0.00 45 1010.3
20260905211550 101 69 1.0 8.0 0.00 0.00 0.00 44 1010.3
20260905211422 101 355 1.0 8.0 0.00 0.00 0.00 44 1010.4
20260905211327 101 355 2.0 8.0 0.00 0.00 0.00 43 1010.4
20260905211233 102 355 2.0 8.0 0.00 0.00 0.00 45 1010.3
20260905211119 101 337 2.0 8.0 0.00 0.00 0.00 45 1010.4
20260905211027 101 320 2.0 8.0 0.00 0.00 0.00 45 1010.4
20260905210934 102 318 3.0 8.0 0.00 0.00 0.00 45 1010.4
20260905210825 102 9 5.0 8.0 0.00 0.00 0.00 46 1010.4
20260905210753 102 26 5.0 8.0 0.00 0.00 0.00 46 1010.3
20260905210658 102 22 4.0 8.0 0.00 0.00 0.00 46 1010.4
20260905210543 102 47 1.0 6.0 0.00 0.00 0.00 45 1010.3
20260905210430 102 20 1.0 6.0 0.00 0.00 0.00 46 1010.4
20260905210337 102 57 2.0 6.0 0.00 0.00 0.00 47 1010.4
20260905210312 102 360 3.0 6.0 0.00 0.00 0.00 47 1010.4
20260905210024 102 355 3.0 6.0 0.00 0.00 0.00 46 1010.3
20260905205951 102 5 3.0 6.0 0.00 0.00 0.00 45 1010.3
20260905205858 102 291 4.0 6.0 0.00 0.00 0.00 46 1010.2
20260905205723 102 290 4.0 9.0 0.00 0.00 0.00 47 1010.3
20260905205630 102 346 4.0 9.0 0.00 0.00 0.00 46 1010.3
20260905205557 102 348 4.0 9.0 0.00 0.00 0.00 48 1010.4
20260905205427 102 9 2.0 9.0 0.00 0.00 0.00 46 1010.3
20260905205335 102 295 2.0 9.0 0.00 0.00 0.00 47 1010.3
20260905205241 102 319 4.0 9.0 0.00 0.00 0.00 47 1010.4
20260905205127 102 10 4.0 9.0 0.00 0.00 0.00 47 1010.4
20260905205033 102 336 6.0 9.0 0.00 0.00 0.00 47 1010.4
20260905204959 101 333 6.0 9.0 0.00 0.00 0.00 48 1010.4
20260905204827 101 22 4.0 9.0 0.00 0.00 0.00 48 1010.5
20260905204758 101 350 3.0 8.0 0.00 0.00 0.00 48 1010.5
20260905204532 101 355 2.0 3.0 0.00 0.00 0.00 47 1010.5
20260905204418 101 294 1.0 3.0 0.00 0.00 0.00 46 1010.5
20260905204324 101 155 1.0 4.0 0.00 0.00 0.00 45 1010.5
20260905204236 101 211 1.0 4.0 0.00 0.00 0.00 45 1010.6
20260905204122 101 209 1.0 4.0 0.00 0.00 0.00 45 1010.5
20260905204030 101 194 1.0 8.0 0.00 0.00 0.00 45 1010.6
20260905203918 101 298 1.0 9.0 0.00 0.00 0.00 45 1010.6
20260905203825 101 79 1.0 9.0 0.00 0.00 0.00 45 1010.6
20260905203735 101 44 1.0 9.0 0.00 0.00 0.00 48 1010.7
20260905203621 101 17 2.0 9.0 0.00 0.00 0.00 45 1010.7
20260905203527 101 17 3.0 9.0 0.00 0.00 0.00 45 1010.7
20260905203433 101 36 3.0 9.0 0.00 0.00 0.00 48 1010.7
20260905203342 101 31 5.0 9.0 0.00 0.00 0.00 47 1010.7
20260905203316 101 309 7.0 9.0 0.00 0.00 0.00 47 1010.7
20260905203029 101 27 6.0 9.0 0.00 0.00 0.00 47 1010.7
20260905202935 101 355 5.0 9.0 0.00 0.00 0.00 46 1010.8
20260905202842 101 55 6.0 9.0 0.00 0.00 0.00 47 1010.7
20260905202728 101 65 5.0 9.0 0.00 0.00 0.00 46 1010.7
20260905202635 101 53 3.0 8.0 0.00 0.00 0.00 47 1010.8
20260905202525 101 11 3.0 8.0 0.00 0.00 0.00 47 1010.8
20260905202432 101 360 3.0 8.0 0.00 0.00 0.00 47 1010.8
20260905202318 100 5 3.0 8.0 0.00 0.00 0.00 47 1010.8
20260905202224 100 324 3.0 8.0 0.00 0.00 0.00 48 1010.8
20260905202132 100 329 4.0 8.0 0.00 0.00 0.00 48 1010.8
20260905202022 100 349 5.0 8.0 0.00 0.00 0.00 50 1010.8
20260905201929 100 12 3.0 8.0 0.00 0.00 0.00 49 1010.8
20260905201835 100 338 1.0 5.0 0.00 0.00 0.00 47 1010.9
20260905201805 100 340 1.0 5.0 0.00 0.00 0.00 47 1010.9
20260905201538 100 235 2.0 5.0 0.00 0.00 0.00 47 1010.9
20260905201428 101 154 2.0 5.0 0.00 0.00 0.00 46 1010.9
20260905201335 101 223 3.0 5.0 0.00 0.00 0.00 47 1011.0
20260905201221 101 248 3.0 5.0 0.00 0.00 0.00 46 1011.0
20260905201128 101 186 2.0 5.0 0.00 0.00 0.00 46 1011.0
20260905201035 101 179 2.0 5.0 0.00 0.00 0.00 46 1011.1
20260905200942 101 311 3.0 6.0 0.00 0.00 0.00 47 1011.1
20260905200832 101 284 2.0 5.0 0.00 0.00 0.00 49 1011.0
20260905200720 101 10 3.0 5.0 0.00 0.00 0.00 48 1011.1
20260905200646 101 5 3.0 5.0 0.00 0.00 0.00 48 1011.1
20260905200531 101 223 1.0 6.0 0.00 0.00 0.00 48 1011.2
20260905200436 101 36 1.0 6.0 0.00 0.00 0.00 48 1011.1
20260905200342 101 30 2.0 6.0 0.00 0.00 0.00 52 1011.1
20260905200255 101 30 3.0 6.0 0.00 0.00 0.00 48 1011.1
20260905200027 101 319 2.0 8.0 0.00 0.00 0.00 49 1011.3
20260905195935 101 70 2.0 10.0 0.00 0.00 0.00 47 1011.3
20260905195820 101 26 4.0 10.0 0.00 0.00 0.00 46 1011.3
20260905195727 101 300 5.0 10.0 0.00 0.00 0.00 47 1011.4
20260905195637 101 321 4.0 10.0 0.00 0.00 0.00 47 1011.4
20260905195524 101 276 1.0 10.0 0.00 0.00 0.00 47 1011.4
20260905195432 101 24 1.0 10.0 0.00 0.00 0.00 47 1011.4
20260905195339 101 355 3.0 10.0 0.00 0.00 0.00 48 1011.5
20260905195226 101 355 5.0 10.0 0.00 0.00 0.00 48 1011.5
20260905195132 101 313 6.0 10.0 0.00 0.00 0.00 48 1011.4
20260905195023 101 336 4.0 8.0 0.00 0.00 0.00 48 1011.5
20260905194929 101 355 4.0 8.0 0.00 0.00 0.00 47 1011.5
20260905194837 101 9 4.0 8.0 0.00 0.00 0.00 50 1011.5